GEFSNGP_prec_meanprecacc_204.txt.gz
Total_Precipitation_Accumulation
0.23 0.14 0.14 0.18 0.16 0.17 0.22 0.24 0.22 0.10 0.06 0.04 0.03 0.04 0.04 0.04 0.03 0.03 0.03 0.04 0.06 0.06 0.06 0.07 0.09 0.10 0.14 0.17 0.21 0.25 0.31 0.34 0.34 0.35 0.39 0.39 0.40 0.43 0.46 0.50 0.52 0.53 0.52 0.53
0.25 0.15 0.15 0.16 0.12 0.10 0.11 0.10 0.09 0.06 0.06 0.04 0.03 0.02 0.02 0.03 0.04 0.04 0.05 0.06 0.07 0.08 0.08 0.08 0.12 0.17 0.23 0.29 0.32 0.35 0.40 0.41 0.39 0.36 0.36 0.40 0.40 0.40 0.43 0.47 0.47 0.46 0.47 0.48
0.38 0.17 0.27 0.29 0.12 0.07 0.08 0.06 0.06 0.06 0.05 0.04 0.03 0.02 0.02 0.02 0.04 0.05 0.06 0.07 0.09 0.10 0.13 0.14 0.18 0.25 0.31 0.35 0.36 0.37 0.41 0.44 0.44 0.40 0.35 0.37 0.39 0.36 0.36 0.36 0.37 0.37 0.38 0.39
0.59 0.39 0.50 0.21 0.05 0.05 0.06 0.06 0.06 0.05 0.04 0.04 0.03 0.02 0.02 0.03 0.06 0.07 0.09 0.11 0.13 0.15 0.17 0.20 0.25 0.29 0.34 0.36 0.38 0.38 0.38 0.38 0.39 0.34 0.28 0.28 0.32 0.30 0.28 0.28 0.32 0.35 0.35 0.34
0.77 0.58 0.31 0.08 0.03 0.04 0.08 0.09 0.08 0.06 0.05 0.04 0.03 0.03 0.04 0.06 0.07 0.08 0.09 0.10 0.10 0.11 0.14 0.18 0.23 0.26 0.27 0.28 0.30 0.29 0.27 0.24 0.26 0.22 0.20 0.22 0.26 0.24 0.23 0.23 0.26 0.30 0.33 0.36
0.83 0.67 0.30 0.08 0.03 0.04 0.09 0.12 0.08 0.07 0.07 0.06 0.09 0.22 0.12 0.11 0.08 0.06 0.05 0.05 0.06 0.06 0.08 0.10 0.14 0.16 0.16 0.18 0.19 0.20 0.19 0.17 0.20 0.17 0.15 0.17 0.22 0.21 0.22 0.22 0.25 0.28 0.31 0.38
0.67 0.59 0.23 0.06 0.03 0.05 0.16 0.17 0.12 0.11 0.10 0.14 0.21 0.27 0.16 0.10 0.08 0.06 0.05 0.04 0.04 0.05 0.07 0.10 0.12 0.13 0.14 0.12 0.12 0.12 0.13 0.14 0.19 0.19 0.15 0.14 0.17 0.20 0.21 0.23 0.26 0.27 0.29 0.33
0.46 0.60 0.26 0.05 0.06 0.12 0.17 0.13 0.12 0.14 0.16 0.21 0.16 0.08 0.07 0.07 0.07 0.05 0.04 0.04 0.04 0.06 0.09 0.14 0.16 0.12 0.09 0.08 0.07 0.08 0.11 0.13 0.18 0.23 0.18 0.15 0.16 0.18 0.19 0.21 0.26 0.27 0.29 0.31
0.29 0.22 0.08 0.06 0.09 0.10 0.11 0.13 0.17 0.25 0.25 0.23 0.20 0.13 0.11 0.09 0.06 0.05 0.05 0.06 0.07 0.08 0.13 0.17 0.13 0.08 0.07 0.07 0.06 0.08 0.10 0.14 0.18 0.22 0.19 0.17 0.19 0.19 0.18 0.20 0.26 0.31 0.32 0.34
0.21 0.11 0.06 0.06 0.05 0.06 0.08 0.13 0.17 0.21 0.23 0.25 0.26 0.19 0.15 0.12 0.09 0.07 0.07 0.08 0.09 0.10 0.13 0.15 0.11 0.06 0.06 0.06 0.06 0.07 0.10 0.14 0.19 0.21 0.21 0.20 0.19 0.19 0.19 0.22 0.36 0.46 0.44 0.42
0.14 0.08 0.08 0.07 0.06 0.06 0.09 0.09 0.08 0.09 0.13 0.22 0.27 0.21 0.13 0.11 0.11 0.12 0.12 0.12 0.12 0.13 0.14 0.13 0.09 0.06 0.06 0.07 0.09 0.10 0.11 0.15 0.20 0.23 0.23 0.24 0.21 0.21 0.23 0.25 0.45 0.68 0.64 0.65
0.09 0.07 0.08 0.07 0.06 0.08 0.12 0.10 0.10 0.12 0.14 0.15 0.18 0.17 0.13 0.14 0.15 0.16 0.18 0.19 0.19 0.16 0.12 0.10 0.09 0.07 0.07 0.09 0.12 0.14 0.15 0.17 0.21 0.25 0.26 0.26 0.26 0.26 0.26 0.28 0.36 0.42 0.46 0.57
0.05 0.05 0.06 0.06 0.06 0.06 0.09 0.12 0.14 0.16 0.15 0.12 0.11 0.13 0.19 0.22 0.21 0.20 0.21 0.21 0.18 0.14 0.12 0.12 0.11 0.10 0.10 0.13 0.16 0.18 0.19 0.22 0.26 0.27 0.29 0.30 0.31 0.32 0.31 0.28 0.28 0.30 0.33 0.40
0.04 0.06 0.08 0.06 0.05 0.06 0.09 0.11 0.14 0.16 0.14 0.11 0.10 0.11 0.16 0.19 0.19 0.17 0.17 0.15 0.12 0.11 0.11 0.12 0.12 0.12 0.12 0.15 0.19 0.22 0.23 0.26 0.29 0.31 0.32 0.33 0.35 0.34 0.33 0.33 0.32 0.32 0.32 0.35
0.04 0.05 0.08 0.07 0.05 0.07 0.09 0.11 0.12 0.13 0.12 0.11 0.10 0.12 0.14 0.17 0.19 0.19 0.16 0.12 0.11 0.11 0.12 0.12 0.12 0.12 0.13 0.15 0.18 0.21 0.23 0.25 0.29 0.32 0.34 0.35 0.37 0.37 0.36 0.34 0.34 0.35 0.35 0.38
0.06 0.07 0.07 0.07 0.08 0.10 0.10 0.11 0.12 0.13 0.12 0.12 0.13 0.13 0.13 0.14 0.14 0.15 0.14 0.13 0.12 0.12 0.13 0.13 0.14 0.13 0.14 0.16 0.19 0.21 0.22 0.27 0.32 0.33 0.35 0.36 0.39 0.40 0.40 0.40 0.40 0.39 0.41 0.45
0.09 0.09 0.09 0.10 0.11 0.12 0.13 0.14 0.14 0.13 0.10 0.09 0.10 0.10 0.10 0.09 0.09 0.10 0.11 0.12 0.12 0.12 0.12 0.14 0.15 0.14 0.15 0.17 0.22 0.24 0.25 0.28 0.32 0.33 0.34 0.37 0.41 0.45 0.46 0.48 0.49 0.46 0.42 0.43
0.10 0.12 0.14 0.15 0.15 0.14 0.14 0.12 0.10 0.09 0.09 0.08 0.08 0.08 0.09 0.09 0.10 0.09 0.10 0.10 0.10 0.10 0.12 0.14 0.16 0.15 0.14 0.17 0.25 0.27 0.30 0.33 0.34 0.35 0.36 0.39 0.45 0.47 0.48 0.50 0.50 0.47 0.43 0.41
0.10 0.11 0.12 0.13 0.14 0.15 0.13 0.11 0.09 0.08 0.08 0.08 0.09 0.10 0.10 0.10 0.11 0.11 0.10 0.10 0.10 0.12 0.13 0.14 0.16 0.14 0.14 0.18 0.29 0.32 0.36 0.38 0.37 0.36 0.37 0.43 0.44 0.42 0.45 0.48 0.48 0.46 0.44 0.42
0.11 0.11 0.12 0.13 0.13 0.13 0.12 0.09 0.08 0.07 0.07 0.08 0.08 0.09 0.09 0.10 0.11 0.11 0.11 0.11 0.13 0.17 0.15 0.15 0.16 0.17 0.21 0.25 0.36 0.39 0.42 0.43 0.42 0.39 0.39 0.42 0.43 0.43 0.44 0.45 0.47 0.47 0.45 0.44
0.13 0.13 0.14 0.14 0.12 0.10 0.08 0.07 0.07 0.07 0.07 0.07 0.07 0.09 0.09 0.10 0.10 0.11 0.12 0.13 0.13 0.16 0.15 0.17 0.19 0.28 0.35 0.41 0.44 0.41 0.41 0.43 0.43 0.44 0.45 0.46 0.48 0.46 0.45 0.46 0.47 0.48 0.47 0.45
0.14 0.15 0.15 0.15 0.12 0.10 0.08 0.08 0.08 0.08 0.08 0.08 0.08 0.10 0.11 0.12 0.12 0.13 0.15 0.17 0.18 0.21 0.20 0.19 0.28 0.45 0.47 0.47 0.42 0.41 0.39 0.38 0.40 0.43 0.46 0.50 0.53 0.53 0.51 0.50 0.53 0.51 0.48 0.48
0.15 0.16 0.17 0.16 0.14 0.12 0.11 0.10 0.10 0.10 0.10 0.11 0.12 0.13 0.16 0.17 0.18 0.21 0.24 0.23 0.23 0.26 0.24 0.24 0.36 0.44 0.45 0.41 0.39 0.38 0.38 0.40 0.42 0.45 0.48 0.53 0.56 0.59 0.61 0.59 0.56 0.55 0.55 0.53
0.19 0.19 0.19 0.17 0.14 0.13 0.13 0.13 0.13 0.13 0.14 0.14 0.16 0.17 0.18 0.20 0.22 0.23 0.26 0.27 0.27 0.27 0.25 0.28 0.34 0.37 0.36 0.35 0.35 0.37 0.39 0.44 0.50 0.52 0.53 0.55 0.56 0.59 0.63 0.64 0.63 0.58 0.57 0.56
0.24 0.23 0.20 0.18 0.16 0.17 0.18 0.18 0.17 0.17 0.16 0.17 0.18 0.19 0.20 0.22 0.26 0.27 0.26 0.27 0.28 0.28 0.27 0.29 0.32 0.33 0.32 0.33 0.36 0.40 0.45 0.51 0.60 0.64 0.63 0.61 0.59 0.61 0.62 0.64 0.67 0.66 0.63 0.60
0.29 0.28 0.25 0.23 0.22 0.21 0.21 0.21 0.22 0.23 0.21 0.21 0.21 0.21 0.21 0.22 0.23 0.25 0.27 0.28 0.29 0.29 0.29 0.29 0.30 0.32 0.34 0.36 0.39 0.44 0.49 0.53 0.57 0.57 0.56 0.59 0.59 0.61 0.63 0.66 0.68 0.68 0.67 0.63
0.30 0.27 0.24 0.22 0.21 0.20 0.21 0.22 0.23 0.25 0.25 0.25 0.25 0.23 0.21 0.21 0.22 0.23 0.25 0.27 0.29 0.30 0.30 0.32 0.33 0.36 0.38 0.39 0.42 0.46 0.49 0.52 0.56 0.60 0.60 0.61 0.62 0.64 0.65 0.69 0.71 0.70 0.69 0.67

GEFSNGP_prec_meanprecacc_210.txt.gz
Total_Precipitation_Accumulation
0.24 0.14 0.15 0.18 0.16 0.17 0.24 0.26 0.25 0.11 0.06 0.05 0.04 0.04 0.05 0.04 0.04 0.03 0.03 0.04 0.06 0.06 0.06 0.07 0.09 0.11 0.15 0.20 0.24 0.29 0.36 0.38 0.38 0.38 0.42 0.42 0.44 0.46 0.49 0.52 0.55 0.55 0.54 0.57
0.27 0.16 0.16 0.17 0.12 0.10 0.11 0.11 0.10 0.07 0.07 0.05 0.03 0.02 0.02 0.03 0.04 0.04 0.05 0.06 0.07 0.08 0.08 0.08 0.12 0.17 0.24 0.30 0.34 0.38 0.43 0.46 0.44 0.39 0.39 0.43 0.43 0.43 0.47 0.51 0.50 0.48 0.48 0.50
0.41 0.18 0.29 0.31 0.12 0.08 0.08 0.07 0.06 0.07 0.06 0.04 0.03 0.03 0.02 0.02 0.04 0.05 0.06 0.07 0.09 0.10 0.13 0.14 0.18 0.25 0.32 0.36 0.38 0.39 0.42 0.46 0.48 0.44 0.40 0.41 0.42 0.39 0.39 0.40 0.41 0.40 0.39 0.40
0.64 0.43 0.54 0.22 0.05 0.05 0.07 0.07 0.06 0.06 0.05 0.04 0.03 0.03 0.02 0.03 0.06 0.07 0.09 0.11 0.13 0.15 0.17 0.20 0.25 0.29 0.34 0.37 0.39 0.40 0.40 0.39 0.40 0.37 0.32 0.32 0.36 0.33 0.32 0.33 0.36 0.37 0.36 0.35
0.83 0.63 0.32 0.08 0.03 0.05 0.08 0.09 0.08 0.07 0.05 0.04 0.04 0.03 0.04 0.06 0.07 0.08 0.09 0.10 0.10 0.11 0.14 0.18 0.23 0.27 0.28 0.29 0.31 0.31 0.30 0.28 0.28 0.25 0.23 0.26 0.31 0.28 0.27 0.27 0.30 0.33 0.35 0.37
0.91 0.73 0.32 0.08 0.03 0.04 0.09 0.12 0.08 0.08 0.07 0.06 0.10 0.22 0.12 0.11 0.08 0.06 0.05 0.05 0.06 0.06 0.08 0.10 0.14 0.17 0.17 0.18 0.19 0.21 0.21 0.20 0.25 0.21 0.18 0.21 0.26 0.25 0.25 0.26 0.29 0.31 0.33 0.39
0.74 0.65 0.25 0.06 0.03 0.06 0.16 0.17 0.12 0.11 0.10 0.14 0.21 0.27 0.16 0.10 0.08 0.06 0.05 0.04 0.04 0.05 0.07 0.11 0.13 0.14 0.14 0.12 0.13 0.14 0.15 0.17 0.23 0.24 0.20 0.19 0.22 0.26 0.25 0.26 0.29 0.31 0.32 0.36
0.51 0.66 0.29 0.05 0.07 0.12 0.17 0.13 0.12 0.14 0.16 0.21 0.16 0.08 0.07 0.07 0.07 0.05 0.04 0.04 0.04 0.06 0.10 0.15 0.17 0.13 0.10 0.08 0.08 0.10 0.13 0.16 0.21 0.28 0.24 0.22 0.23 0.25 0.25 0.26 0.30 0.33 0.33 0.35
0.33 0.26 0.09 0.06 0.09 0.10 0.11 0.13 0.17 0.25 0.25 0.24 0.20 0.13 0.11 0.09 0.07 0.05 0.05 0.06 0.07 0.09 0.14 0.17 0.13 0.09 0.08 0.07 0.08 0.09 0.12 0.16 0.21 0.26 0.25 0.24 0.24 0.26 0.26 0.27 0.32 0.36 0.37 0.38
0.23 0.13 0.08 0.06 0.06 0.06 0.09 0.14 0.18 0.21 0.23 0.25 0.26 0.20 0.15 0.12 0.10 0.07 0.07 0.09 0.10 0.10 0.14 0.16 0.12 0.07 0.06 0.07 0.07 0.09 0.12 0.17 0.21 0.24 0.25 0.25 0.24 0.24 0.26 0.31 0.44 0.52 0.48 0.46
0.15 0.09 0.09 0.08 0.07 0.08 0.11 0.10 0.09 0.10 0.14 0.22 0.28 0.22 0.13 0.11 0.11 0.12 0.12 0.12 0.13 0.13 0.14 0.14 0.10 0.06 0.06 0.08 0.10 0.11 0.13 0.16 0.22 0.26 0.27 0.27 0.25 0.25 0.29 0.32 0.54 0.77 0.71 0.70
0.10 0.07 0.10 0.08 0.07 0.10 0.13 0.11 0.10 0.13 0.14 0.15 0.18 0.17 0.13 0.14 0.15 0.16 0.18 0.19 0.19 0.16 0.12 0.10 0.09 0.08 0.08 0.10 0.14 0.15 0.16 0.19 0.22 0.27 0.29 0.29 0.29 0.29 0.30 0.33 0.43 0.50 0.54 0.65
0.06 0.05 0.06 0.07 0.06 0.07 0.10 0.12 0.14 0.17 0.16 0.12 0.11 0.14 0.19 0.22 0.21 0.20 0.21 0.21 0.18 0.14 0.13 0.12 0.12 0.10 0.11 0.14 0.17 0.19 0.20 0.23 0.28 0.29 0.31 0.32 0.33 0.35 0.34 0.31 0.32 0.36 0.39 0.46
0.04 0.06 0.08 0.06 0.05 0.06 0.09 0.11 0.14 0.16 0.14 0.11 0.10 0.11 0.16 0.20 0.19 0.17 0.17 0.15 0.12 0.12 0.11 0.12 0.12 0.12 0.13 0.16 0.20 0.23 0.24 0.27 0.31 0.33 0.34 0.34 0.36 0.36 0.36 0.36 0.36 0.35 0.35 0.39
0.04 0.06 0.08 0.07 0.06 0.07 0.10 0.11 0.12 0.13 0.13 0.12 0.11 0.12 0.14 0.17 0.19 0.19 0.16 0.13 0.11 0.11 0.12 0.12 0.12 0.13 0.13 0.16 0.19 0.22 0.25 0.27 0.31 0.34 0.36 0.37 0.39 0.39 0.38 0.37 0.37 0.38 0.38 0.41
0.06 0.07 0.07 0.07 0.08 0.10 0.11 0.11 0.13 0.13 0.12 0.12 0.13 0.13 0.13 0.14 0.14 0.15 0.14 0.13 0.12 0.12 0.13 0.13 0.14 0.14 0.15 0.17 0.20 0.21 0.23 0.29 0.34 0.35 0.37 0.38 0.40 0.42 0.42 0.43 0.42 0.42 0.44 0.48
0.09 0.09 0.10 0.11 0.11 0.12 0.14 0.14 0.14 0.13 0.10 0.09 0.10 0.10 0.10 0.10 0.09 0.10 0.11 0.12 0.12 0.12 0.13 0.14 0.15 0.15 0.16 0.18 0.23 0.25 0.26 0.29 0.35 0.35 0.36 0.38 0.43 0.47 0.47 0.50 0.51 0.48 0.45 0.47
0.10 0.12 0.14 0.15 0.15 0.15 0.14 0.12 0.10 0.09 0.09 0.08 0.08 0.08 0.09 0.09 0.10 0.09 0.10 0.10 0.10 0.10 0.12 0.14 0.16 0.15 0.15 0.18 0.26 0.28 0.32 0.35 0.37 0.38 0.38 0.41 0.47 0.48 0.50 0.52 0.51 0.49 0.45 0.44
0.11 0.12 0.12 0.13 0.14 0.15 0.14 0.11 0.09 0.08 0.08 0.08 0.09 0.10 0.10 0.10 0.11 0.11 0.10 0.10 0.11 0.13 0.13 0.14 0.16 0.15 0.15 0.19 0.30 0.33 0.37 0.40 0.40 0.38 0.39 0.45 0.46 0.44 0.47 0.49 0.50 0.47 0.45 0.45
0.11 0.11 0.12 0.13 0.13 0.13 0.12 0.10 0.08 0.07 0.07 0.08 0.08 0.09 0.09 0.10 0.11 0.11 0.11 0.11 0.13 0.17 0.15 0.16 0.16 0.18 0.21 0.26 0.37 0.41 0.43 0.44 0.44 0.42 0.42 0.44 0.46 0.45 0.46 0.47 0.49 0.49 0.48 0.47
0.13 0.13 0.14 0.14 0.13 0.10 0.09 0.08 0.07 0.07 0.07 0.07 0.08 0.09 0.10 0.10 0.11 0.11 0.12 0.13 0.14 0.16 0.16 0.17 0.19 0.29 0.36 0.42 0.45 0.43 0.43 0.45 0.46 0.46 0.47 0.49 0.50 0.48 0.47 0.48 0.49 0.50 0.49 0.48
0.15 0.15 0.16 0.15 0.13 0.10 0.09 0.08 0.08 0.08 0.08 0.08 0.09 0.10 0.12 0.12 0.13 0.14 0.15 0.17 0.19 0.22 0.21 0.20 0.29 0.46 0.49 0.49 0.43 0.42 0.41 0.41 0.42 0.45 0.49 0.52 0.56 0.55 0.53 0.52 0.55 0.53 0.51 0.51
0.16 0.17 0.17 0.16 0.14 0.12 0.11 0.10 0.10 0.11 0.11 0.12 0.12 0.14 0.16 0.18 0.18 0.21 0.25 0.23 0.23 0.27 0.25 0.25 0.37 0.46 0.46 0.42 0.40 0.39 0.40 0.42 0.44 0.47 0.51 0.55 0.58 0.61 0.62 0.61 0.58 0.57 0.57 0.56
0.20 0.19 0.19 0.17 0.14 0.13 0.14 0.14 0.13 0.14 0.14 0.15 0.16 0.18 0.19 0.21 0.23 0.24 0.27 0.27 0.27 0.28 0.26 0.29 0.36 0.38 0.37 0.36 0.37 0.38 0.41 0.46 0.52 0.54 0.55 0.57 0.58 0.61 0.65 0.66 0.65 0.60 0.59 0.58
0.25 0.23 0.20 0.18 0.16 0.17 0.18 0.18 0.18 0.18 0.17 0.17 0.19 0.20 0.21 0.23 0.27 0.28 0.26 0.27 0.28 0.29 0.28 0.29 0.33 0.34 0.33 0.34 0.38 0.41 0.47 0.53 0.62 0.66 0.65 0.63 0.61 0.62 0.64 0.66 0.69 0.69 0.65 0.62
0.30 0.28 0.25 0.23 0.22 0.21 0.22 0.21 0.23 0.23 0.21 0.21 0.22 0.21 0.21 0.22 0.24 0.26 0.27 0.29 0.29 0.29 0.29 0.30 0.31 0.34 0.35 0.38 0.41 0.45 0.51 0.55 0.59 0.59 0.58 0.61 0.61 0.63 0.65 0.68 0.70 0.70 0.69 0.65
0.30 0.27 0.24 0.22 0.21 0.21 0.21 0.22 0.24 0.26 0.25 0.25 0.26 0.23 0.21 0.21 0.22 0.24 0.26 0.28 0.30 0.31 0.31 0.33 0.35 0.37 0.39 0.41 0.43 0.48 0.51 0.54 0.58 0.62 0.62 0.63 0.64 0.66 0.67 0.71 0.72 0.71 0.70 0.68

GEFSNGP_prec_meanprecacc_216.txt.gz
Total_Precipitation_Accumulation
0.26 0.15 0.15 0.19 0.17 0.18 0.25 0.28 0.27 0.13 0.07 0.05 0.05 0.05 0.07 0.06 0.04 0.04 0.04 0.06 0.08 0.08 0.07 0.09 0.10 0.11 0.15 0.21 0.24 0.30 0.37 0.39 0.38 0.38 0.43 0.43 0.46 0.49 0.51 0.55 0.57 0.58 0.57 0.60
0.31 0.17 0.17 0.18 0.13 0.11 0.12 0.11 0.10 0.08 0.07 0.05 0.04 0.03 0.04 0.04 0.05 0.05 0.05 0.07 0.07 0.08 0.08 0.09 0.12 0.17 0.24 0.30 0.35 0.39 0.44 0.47 0.45 0.40 0.40 0.45 0.45 0.46 0.50 0.53 0.53 0.53 0.52 0.54
0.45 0.21 0.32 0.33 0.13 0.08 0.08 0.07 0.07 0.08 0.07 0.05 0.04 0.03 0.03 0.04 0.05 0.06 0.06 0.07 0.09 0.11 0.13 0.15 0.19 0.25 0.32 0.36 0.38 0.40 0.44 0.49 0.51 0.45 0.40 0.43 0.44 0.44 0.43 0.44 0.45 0.45 0.45 0.46
0.69 0.47 0.59 0.23 0.06 0.05 0.07 0.07 0.07 0.06 0.06 0.05 0.04 0.04 0.03 0.04 0.06 0.08 0.10 0.12 0.14 0.16 0.18 0.21 0.25 0.30 0.34 0.37 0.40 0.40 0.41 0.41 0.43 0.39 0.33 0.36 0.40 0.39 0.36 0.36 0.40 0.41 0.41 0.41
0.90 0.68 0.35 0.08 0.04 0.05 0.08 0.10 0.08 0.07 0.06 0.05 0.05 0.05 0.06 0.07 0.08 0.09 0.10 0.10 0.11 0.12 0.15 0.19 0.24 0.27 0.28 0.29 0.31 0.31 0.30 0.28 0.30 0.27 0.27 0.32 0.36 0.33 0.31 0.31 0.32 0.35 0.38 0.42
1.00 0.79 0.35 0.08 0.03 0.04 0.09 0.12 0.09 0.08 0.07 0.07 0.11 0.24 0.14 0.12 0.09 0.07 0.06 0.06 0.06 0.07 0.08 0.11 0.15 0.17 0.18 0.18 0.20 0.21 0.21 0.21 0.26 0.25 0.23 0.27 0.32 0.31 0.30 0.29 0.32 0.35 0.38 0.45
0.82 0.71 0.27 0.06 0.03 0.06 0.17 0.18 0.13 0.11 0.11 0.15 0.22 0.28 0.17 0.11 0.09 0.08 0.06 0.05 0.05 0.05 0.08 0.11 0.14 0.15 0.14 0.13 0.13 0.14 0.16 0.18 0.25 0.27 0.25 0.24 0.27 0.30 0.30 0.31 0.33 0.35 0.37 0.42
0.59 0.74 0.33 0.06 0.07 0.13 0.18 0.14 0.12 0.14 0.16 0.21 0.16 0.09 0.07 0.08 0.09 0.07 0.05 0.05 0.05 0.07 0.10 0.15 0.17 0.14 0.10 0.09 0.09 0.10 0.14 0.17 0.22 0.30 0.27 0.26 0.27 0.27 0.28 0.32 0.35 0.37 0.39 0.41
0.40 0.32 0.12 0.08 0.10 0.11 0.12 0.14 0.17 0.25 0.26 0.24 0.20 0.13 0.11 0.10 0.08 0.06 0.06 0.07 0.08 0.09 0.14 0.17 0.14 0.09 0.08 0.08 0.08 0.10 0.13 0.17 0.22 0.28 0.27 0.26 0.27 0.28 0.29 0.30 0.36 0.41 0.43 0.45
0.28 0.17 0.10 0.08 0.07 0.07 0.10 0.15 0.18 0.22 0.24 0.26 0.27 0.21 0.16 0.13 0.10 0.08 0.08 0.09 0.10 0.10 0.14 0.16 0.12 0.07 0.07 0.07 0.07 0.09 0.12 0.18 0.22 0.26 0.28 0.28 0.26 0.27 0.29 0.34 0.48 0.56 0.55 0.54
0.18 0.12 0.12 0.10 0.09 0.10 0.12 0.11 0.10 0.11 0.15 0.23 0.28 0.22 0.14 0.11 0.11 0.12 0.13 0.12 0.13 0.13 0.15 0.14 0.10 0.07 0.07 0.09 0.10 0.12 0.13 0.17 0.23 0.27 0.29 0.30 0.28 0.28 0.32 0.36 0.58 0.82 0.78 0.77
0.12 0.09 0.11 0.10 0.08 0.11 0.14 0.12 0.12 0.14 0.15 0.15 0.19 0.18 0.14 0.14 0.15 0.16 0.18 0.20 0.19 0.16 0.12 0.11 0.10 0.08 0.08 0.10 0.14 0.16 0.17 0.19 0.24 0.29 0.31 0.31 0.30 0.31 0.32 0.36 0.46 0.55 0.61 0.72
0.06 0.06 0.07 0.07 0.06 0.07 0.10 0.12 0.15 0.17 0.16 0.12 0.11 0.14 0.19 0.23 0.22 0.20 0.21 0.21 0.18 0.14 0.13 0.12 0.12 0.11 0.11 0.14 0.18 0.19 0.21 0.24 0.28 0.31 0.33 0.34 0.35 0.36 0.35 0.33 0.35 0.39 0.44 0.52
0.05 0.06 0.08 0.06 0.06 0.06 0.09 0.11 0.14 0.17 0.15 0.11 0.10 0.11 0.16 0.20 0.20 0.18 0.17 0.15 0.12 0.12 0.11 0.12 0.13 0.12 0.13 0.16 0.21 0.24 0.24 0.28 0.32 0.34 0.35 0.36 0.37 0.38 0.38 0.39 0.39 0.39 0.40 0.44
0.04 0.06 0.09 0.07 0.06 0.08 0.10 0.11 0.12 0.14 0.13 0.12 0.11 0.12 0.14 0.17 0.19 0.19 0.16 0.13 0.11 0.11 0.12 0.12 0.13 0.13 0.14 0.17 0.20 0.23 0.25 0.28 0.31 0.35 0.37 0.38 0.40 0.41 0.40 0.39 0.40 0.41 0.42 0.46
0.07 0.07 0.07 0.08 0.09 0.11 0.11 0.11 0.13 0.13 0.13 0.13 0.13 0.13 0.13 0.14 0.15 0.15 0.14 0.13 0.12 0.12 0.13 0.13 0.14 0.15 0.15 0.17 0.21 0.22 0.23 0.30 0.35 0.36 0.38 0.39 0.42 0.43 0.44 0.45 0.45 0.45 0.48 0.52
0.09 0.10 0.10 0.11 0.12 0.13 0.14 0.15 0.14 0.13 0.11 0.10 0.10 0.10 0.10 0.10 0.10 0.10 0.11 0.12 0.12 0.12 0.13 0.14 0.15 0.15 0.16 0.18 0.24 0.26 0.27 0.30 0.36 0.37 0.38 0.40 0.45 0.49 0.49 0.52 0.53 0.51 0.48 0.51
0.11 0.13 0.14 0.16 0.16 0.15 0.15 0.13 0.11 0.09 0.09 0.09 0.08 0.09 0.09 0.09 0.10 0.10 0.10 0.10 0.10 0.11 0.12 0.14 0.17 0.16 0.15 0.18 0.27 0.29 0.33 0.36 0.38 0.40 0.40 0.44 0.49 0.51 0.52 0.54 0.53 0.51 0.48 0.47
0.11 0.12 0.13 0.14 0.15 0.16 0.14 0.12 0.10 0.09 0.09 0.09 0.09 0.10 0.10 0.11 0.11 0.11 0.10 0.10 0.11 0.13 0.13 0.14 0.17 0.15 0.15 0.20 0.31 0.35 0.38 0.41 0.42 0.41 0.42 0.48 0.49 0.46 0.48 0.51 0.51 0.49 0.48 0.47
0.12 0.12 0.13 0.14 0.14 0.14 0.13 0.11 0.09 0.08 0.08 0.09 0.09 0.10 0.10 0.11 0.11 0.12 0.11 0.12 0.14 0.18 0.16 0.16 0.17 0.18 0.22 0.27 0.38 0.42 0.44 0.46 0.46 0.44 0.45 0.46 0.48 0.47 0.48 0.48 0.50 0.51 0.49 0.48
0.14 0.14 0.14 0.15 0.13 0.11 0.10 0.09 0.08 0.08 0.08 0.08 0.09 0.10 0.11 0.11 0.12 0.12 0.12 0.13 0.14 0.17 0.16 0.18 0.20 0.29 0.37 0.43 0.46 0.45 0.45 0.46 0.47 0.48 0.50 0.51 0.52 0.50 0.48 0.49 0.51 0.52 0.51 0.50
0.15 0.16 0.16 0.16 0.13 0.12 0.10 0.10 0.09 0.09 0.09 0.09 0.10 0.11 0.13 0.14 0.14 0.15 0.16 0.18 0.20 0.23 0.21 0.21 0.29 0.46 0.49 0.50 0.44 0.44 0.43 0.42 0.44 0.47 0.51 0.54 0.58 0.57 0.54 0.54 0.57 0.55 0.52 0.53
0.16 0.17 0.18 0.17 0.15 0.14 0.12 0.12 0.12 0.12 0.12 0.13 0.14 0.15 0.17 0.19 0.19 0.22 0.26 0.24 0.24 0.27 0.25 0.26 0.37 0.46 0.47 0.43 0.41 0.40 0.41 0.43 0.45 0.48 0.52 0.57 0.60 0.62 0.64 0.62 0.60 0.59 0.59 0.58
0.21 0.21 0.21 0.19 0.16 0.15 0.16 0.16 0.15 0.15 0.15 0.16 0.18 0.19 0.20 0.22 0.23 0.24 0.28 0.28 0.27 0.28 0.26 0.29 0.36 0.39 0.38 0.37 0.38 0.39 0.42 0.48 0.53 0.55 0.56 0.59 0.60 0.62 0.66 0.67 0.66 0.62 0.60 0.60
0.26 0.25 0.22 0.19 0.18 0.19 0.20 0.20 0.19 0.19 0.18 0.19 0.20 0.21 0.22 0.24 0.28 0.28 0.27 0.28 0.29 0.29 0.29 0.30 0.33 0.34 0.33 0.35 0.38 0.42 0.48 0.55 0.63 0.67 0.67 0.65 0.63 0.64 0.65 0.67 0.70 0.70 0.66 0.64
0.31 0.30 0.27 0.25 0.24 0.23 0.23 0.22 0.24 0.24 0.22 0.22 0.22 0.22 0.22 0.23 0.25 0.26 0.28 0.29 0.29 0.30 0.30 0.30 0.31 0.34 0.36 0.38 0.42 0.46 0.52 0.57 0.60 0.61 0.60 0.63 0.63 0.64 0.66 0.69 0.71 0.72 0.70 0.67
0.32 0.29 0.25 0.23 0.22 0.22 0.22 0.23 0.24 0.26 0.26 0.26 0.26 0.24 0.22 0.22 0.23 0.24 0.26 0.28 0.30 0.31 0.31 0.33 0.35 0.37 0.40 0.41 0.44 0.49 0.53 0.56 0.60 0.64 0.64 0.64 0.65 0.67 0.68 0.72 0.73 0.72 0.71 0.69

GEFSNGP_prec_meanprecacc_222.txt.gz
Total_Precipitation_Accumulation
0.29 0.17 0.17 0.21 0.19 0.19 0.28 0.31 0.28 0.13 0.07 0.06 0.05 0.06 0.07 0.06 0.05 0.04 0.05 0.07 0.09 0.10 0.09 0.11 0.12 0.13 0.17 0.22 0.26 0.32 0.38 0.40 0.39 0.39 0.43 0.43 0.46 0.49 0.52 0.55 0.58 0.59 0.58 0.62
0.35 0.20 0.19 0.19 0.14 0.12 0.14 0.13 0.12 0.08 0.08 0.06 0.04 0.04 0.04 0.04 0.05 0.05 0.06 0.07 0.08 0.10 0.11 0.11 0.15 0.20 0.26 0.33 0.37 0.41 0.46 0.48 0.46 0.40 0.40 0.45 0.45 0.47 0.50 0.54 0.54 0.54 0.54 0.55
0.51 0.25 0.38 0.37 0.14 0.10 0.11 0.09 0.09 0.09 0.08 0.05 0.04 0.03 0.03 0.04 0.05 0.06 0.06 0.07 0.09 0.11 0.14 0.16 0.21 0.28 0.35 0.39 0.41 0.43 0.46 0.50 0.52 0.45 0.40 0.43 0.45 0.44 0.44 0.44 0.46 0.47 0.47 0.47
0.77 0.52 0.66 0.27 0.07 0.06 0.08 0.08 0.08 0.07 0.07 0.06 0.05 0.04 0.03 0.04 0.07 0.09 0.10 0.12 0.14 0.16 0.18 0.22 0.26 0.31 0.36 0.39 0.42 0.42 0.42 0.42 0.43 0.39 0.34 0.36 0.41 0.40 0.36 0.37 0.41 0.42 0.43 0.42
0.99 0.74 0.38 0.09 0.04 0.05 0.09 0.11 0.09 0.08 0.07 0.06 0.06 0.06 0.07 0.08 0.08 0.09 0.10 0.10 0.11 0.12 0.15 0.20 0.25 0.28 0.29 0.30 0.32 0.31 0.31 0.29 0.30 0.28 0.27 0.32 0.37 0.34 0.31 0.31 0.33 0.36 0.39 0.43
1.11 0.86 0.38 0.09 0.04 0.04 0.10 0.15 0.10 0.09 0.08 0.08 0.12 0.25 0.15 0.12 0.09 0.07 0.06 0.06 0.07 0.08 0.09 0.12 0.16 0.18 0.19 0.19 0.20 0.22 0.21 0.21 0.27 0.25 0.23 0.28 0.34 0.32 0.31 0.30 0.32 0.35 0.38 0.45
0.91 0.78 0.30 0.07 0.04 0.06 0.19 0.22 0.15 0.13 0.12 0.16 0.24 0.30 0.18 0.12 0.10 0.08 0.06 0.05 0.05 0.06 0.09 0.12 0.15 0.16 0.15 0.13 0.13 0.14 0.16 0.18 0.25 0.27 0.25 0.25 0.28 0.31 0.31 0.32 0.33 0.36 0.38 0.42
0.66 0.83 0.38 0.08 0.08 0.15 0.21 0.16 0.14 0.16 0.17 0.23 0.19 0.12 0.10 0.10 0.10 0.08 0.06 0.06 0.06 0.07 0.11 0.16 0.18 0.14 0.10 0.09 0.09 0.10 0.14 0.17 0.23 0.30 0.28 0.26 0.28 0.28 0.29 0.33 0.37 0.38 0.40 0.42
0.46 0.38 0.16 0.09 0.11 0.12 0.14 0.16 0.19 0.26 0.26 0.24 0.21 0.14 0.13 0.11 0.09 0.07 0.07 0.08 0.09 0.10 0.15 0.18 0.14 0.10 0.09 0.08 0.08 0.10 0.13 0.18 0.23 0.28 0.28 0.27 0.28 0.29 0.30 0.33 0.39 0.43 0.45 0.47
0.31 0.20 0.12 0.09 0.08 0.08 0.10 0.15 0.19 0.22 0.24 0.26 0.28 0.21 0.17 0.14 0.11 0.09 0.09 0.10 0.11 0.11 0.15 0.17 0.12 0.07 0.07 0.07 0.07 0.09 0.12 0.18 0.23 0.27 0.29 0.28 0.27 0.28 0.30 0.36 0.51 0.59 0.58 0.57
0.20 0.15 0.13 0.12 0.10 0.10 0.12 0.11 0.10 0.11 0.15 0.24 0.29 0.23 0.15 0.12 0.12 0.13 0.13 0.13 0.14 0.14 0.15 0.14 0.10 0.07 0.07 0.09 0.10 0.12 0.13 0.17 0.23 0.27 0.29 0.30 0.28 0.29 0.33 0.38 0.61 0.86 0.82 0.81
0.15 0.12 0.13 0.12 0.10 0.12 0.15 0.13 0.13 0.15 0.16 0.17 0.20 0.18 0.15 0.15 0.16 0.17 0.19 0.20 0.19 0.16 0.12 0.11 0.10 0.08 0.09 0.11 0.14 0.16 0.17 0.20 0.24 0.29 0.31 0.31 0.31 0.31 0.33 0.37 0.47 0.56 0.63 0.75
0.09 0.08 0.09 0.09 0.08 0.08 0.11 0.13 0.16 0.18 0.17 0.14 0.13 0.15 0.20 0.24 0.22 0.21 0.22 0.21 0.18 0.14 0.13 0.13 0.12 0.11 0.12 0.15 0.18 0.20 0.21 0.24 0.29 0.31 0.33 0.34 0.35 0.37 0.36 0.34 0.35 0.40 0.45 0.53
0.06 0.07 0.10 0.08 0.07 0.07 0.09 0.11 0.14 0.17 0.15 0.12 0.12 0.13 0.18 0.22 0.22 0.19 0.19 0.16 0.13 0.12 0.12 0.13 0.13 0.13 0.14 0.17 0.22 0.25 0.26 0.29 0.32 0.34 0.36 0.37 0.39 0.39 0.39 0.40 0.40 0.40 0.41 0.46
0.05 0.07 0.10 0.08 0.07 0.08 0.10 0.11 0.13 0.14 0.13 0.13 0.12 0.13 0.15 0.18 0.21 0.21 0.17 0.13 0.11 0.11 0.12 0.13 0.13 0.13 0.14 0.17 0.21 0.23 0.26 0.28 0.32 0.36 0.37 0.39 0.41 0.42 0.42 0.41 0.42 0.43 0.44 0.47
0.07 0.08 0.08 0.08 0.09 0.11 0.11 0.12 0.13 0.14 0.13 0.14 0.14 0.14 0.14 0.15 0.15 0.15 0.14 0.13 0.12 0.12 0.13 0.14 0.14 0.15 0.15 0.18 0.21 0.22 0.24 0.30 0.36 0.37 0.39 0.40 0.43 0.45 0.46 0.47 0.47 0.47 0.50 0.55
0.10 0.10 0.11 0.12 0.13 0.14 0.15 0.16 0.15 0.14 0.11 0.10 0.11 0.11 0.11 0.10 0.10 0.10 0.11 0.12 0.12 0.13 0.13 0.14 0.15 0.15 0.16 0.18 0.24 0.26 0.27 0.31 0.37 0.37 0.39 0.41 0.45 0.50 0.51 0.54 0.55 0.53 0.51 0.55
0.12 0.14 0.15 0.17 0.17 0.16 0.16 0.13 0.11 0.10 0.10 0.10 0.09 0.09 0.09 0.10 0.10 0.10 0.10 0.11 0.11 0.11 0.12 0.14 0.17 0.16 0.15 0.19 0.28 0.30 0.33 0.37 0.39 0.41 0.41 0.44 0.50 0.52 0.53 0.55 0.55 0.54 0.51 0.51
0.13 0.13 0.14 0.15 0.16 0.16 0.15 0.13 0.10 0.10 0.10 0.10 0.10 0.11 0.11 0.11 0.12 0.12 0.11 0.11 0.11 0.13 0.14 0.15 0.17 0.15 0.16 0.20 0.32 0.36 0.39 0.42 0.43 0.41 0.43 0.49 0.50 0.46 0.49 0.52 0.54 0.52 0.50 0.50
0.14 0.14 0.15 0.15 0.15 0.15 0.14 0.12 0.10 0.09 0.10 0.10 0.11 0.11 0.11 0.11 0.12 0.13 0.12 0.13 0.15 0.18 0.17 0.17 0.17 0.19 0.22 0.27 0.39 0.43 0.45 0.46 0.47 0.45 0.45 0.47 0.48 0.48 0.48 0.50 0.52 0.53 0.52 0.51
0.16 0.15 0.16 0.16 0.15 0.13 0.11 0.10 0.09 0.09 0.09 0.09 0.10 0.11 0.12 0.12 0.13 0.13 0.14 0.15 0.16 0.18 0.17 0.18 0.21 0.30 0.37 0.44 0.47 0.46 0.46 0.47 0.48 0.49 0.51 0.52 0.53 0.50 0.49 0.50 0.52 0.53 0.53 0.52
0.16 0.17 0.17 0.16 0.14 0.13 0.11 0.11 0.11 0.10 0.10 0.11 0.11 0.13 0.14 0.15 0.15 0.16 0.17 0.19 0.21 0.24 0.22 0.21 0.30 0.47 0.51 0.51 0.46 0.45 0.44 0.42 0.44 0.47 0.51 0.55 0.59 0.58 0.55 0.55 0.58 0.56 0.54 0.55
0.17 0.18 0.19 0.18 0.16 0.15 0.14 0.13 0.13 0.13 0.13 0.14 0.15 0.16 0.18 0.20 0.20 0.23 0.27 0.25 0.25 0.28 0.26 0.27 0.38 0.47 0.48 0.44 0.42 0.42 0.42 0.44 0.46 0.49 0.53 0.58 0.61 0.64 0.65 0.63 0.61 0.60 0.60 0.60
0.22 0.22 0.21 0.19 0.16 0.15 0.16 0.17 0.16 0.16 0.17 0.18 0.19 0.20 0.21 0.23 0.24 0.25 0.28 0.29 0.28 0.29 0.27 0.30 0.37 0.40 0.39 0.38 0.39 0.40 0.44 0.49 0.54 0.56 0.57 0.60 0.61 0.63 0.67 0.69 0.68 0.63 0.62 0.62
0.27 0.25 0.23 0.20 0.19 0.20 0.21 0.21 0.20 0.20 0.19 0.20 0.22 0.23 0.23 0.25 0.29 0.30 0.28 0.29 0.30 0.30 0.29 0.31 0.34 0.35 0.34 0.36 0.39 0.43 0.49 0.56 0.64 0.68 0.68 0.66 0.64 0.65 0.66 0.68 0.71 0.71 0.68 0.65
0.32 0.30 0.28 0.26 0.25 0.24 0.24 0.24 0.25 0.25 0.23 0.23 0.24 0.23 0.23 0.24 0.26 0.28 0.29 0.30 0.31 0.31 0.31 0.31 0.32 0.35 0.37 0.40 0.43 0.47 0.53 0.58 0.62 0.62 0.61 0.64 0.63 0.65 0.67 0.70 0.71 0.72 0.71 0.68
0.33 0.30 0.26 0.24 0.23 0.23 0.23 0.24 0.26 0.27 0.27 0.26 0.27 0.25 0.22 0.22 0.24 0.25 0.27 0.30 0.32 0.32 0.33 0.35 0.36 0.38 0.41 0.43 0.46 0.50 0.54 0.57 0.61 0.65 0.65 0.65 0.66 0.68 0.69 0.72 0.74 0.73 0.72 0.70

GEFSNGP_prec_meanprecacc_228.txt.gz
Total_Precipitation_Accumulation
0.31 0.18 0.19 0.24 0.21 0.22 0.31 0.33 0.29 0.13 0.08 0.06 0.05 0.06 0.07 0.07 0.06 0.05 0.05 0.07 0.09 0.10 0.09 0.11 0.12 0.13 0.17 0.22 0.26 0.32 0.38 0.40 0.40 0.40 0.44 0.44 0.47 0.50 0.52 0.56 0.58 0.60 0.60 0.63
0.38 0.22 0.21 0.22 0.16 0.15 0.16 0.16 0.14 0.10 0.09 0.06 0.04 0.04 0.04 0.05 0.07 0.06 0.06 0.07 0.08 0.10 0.11 0.11 0.15 0.21 0.27 0.34 0.37 0.41 0.46 0.49 0.47 0.42 0.41 0.46 0.46 0.47 0.51 0.55 0.55 0.54 0.54 0.56
0.56 0.28 0.41 0.40 0.16 0.11 0.13 0.12 0.12 0.13 0.10 0.06 0.04 0.04 0.04 0.04 0.07 0.08 0.07 0.07 0.09 0.11 0.14 0.16 0.21 0.28 0.35 0.39 0.41 0.44 0.47 0.52 0.53 0.46 0.41 0.44 0.46 0.45 0.44 0.45 0.47 0.47 0.47 0.48
0.82 0.57 0.72 0.29 0.08 0.07 0.09 0.10 0.11 0.11 0.10 0.08 0.06 0.05 0.04 0.04 0.07 0.10 0.11 0.13 0.14 0.16 0.18 0.22 0.26 0.31 0.37 0.41 0.44 0.44 0.45 0.45 0.46 0.40 0.35 0.37 0.42 0.40 0.37 0.37 0.41 0.43 0.43 0.42
1.06 0.79 0.41 0.10 0.05 0.06 0.11 0.14 0.12 0.12 0.11 0.09 0.09 0.07 0.08 0.08 0.09 0.10 0.11 0.11 0.12 0.13 0.15 0.20 0.25 0.28 0.29 0.31 0.33 0.34 0.33 0.32 0.33 0.30 0.29 0.34 0.38 0.35 0.32 0.31 0.33 0.36 0.39 0.43
1.17 0.91 0.41 0.11 0.04 0.05 0.12 0.18 0.13 0.11 0.11 0.11 0.14 0.27 0.16 0.13 0.09 0.08 0.07 0.06 0.07 0.08 0.09 0.12 0.16 0.19 0.20 0.20 0.21 0.23 0.23 0.23 0.28 0.26 0.24 0.29 0.34 0.32 0.31 0.30 0.32 0.35 0.38 0.46
0.97 0.84 0.33 0.09 0.05 0.08 0.22 0.26 0.17 0.14 0.14 0.19 0.27 0.32 0.20 0.13 0.10 0.08 0.07 0.06 0.06 0.07 0.10 0.13 0.16 0.17 0.16 0.14 0.15 0.16 0.17 0.19 0.26 0.27 0.25 0.26 0.28 0.31 0.31 0.32 0.33 0.36 0.38 0.43
0.74 0.91 0.44 0.11 0.11 0.19 0.27 0.20 0.17 0.18 0.20 0.26 0.23 0.15 0.13 0.13 0.12 0.09 0.07 0.07 0.08 0.10 0.13 0.18 0.19 0.15 0.12 0.10 0.10 0.11 0.15 0.18 0.23 0.30 0.28 0.27 0.28 0.29 0.29 0.33 0.37 0.38 0.40 0.42
0.53 0.46 0.21 0.14 0.16 0.17 0.18 0.19 0.21 0.28 0.28 0.27 0.24 0.18 0.16 0.15 0.11 0.09 0.09 0.09 0.10 0.11 0.15 0.18 0.15 0.10 0.09 0.09 0.09 0.10 0.14 0.18 0.23 0.29 0.28 0.27 0.28 0.29 0.30 0.33 0.39 0.43 0.45 0.47
0.35 0.24 0.16 0.13 0.11 0.11 0.13 0.17 0.20 0.23 0.25 0.28 0.29 0.23 0.19 0.16 0.13 0.11 0.10 0.11 0.12 0.12 0.15 0.18 0.13 0.08 0.08 0.08 0.08 0.10 0.13 0.18 0.24 0.28 0.29 0.28 0.27 0.28 0.30 0.37 0.51 0.59 0.58 0.57
0.23 0.18 0.17 0.15 0.13 0.13 0.14 0.13 0.12 0.12 0.16 0.25 0.30 0.24 0.16 0.14 0.13 0.14 0.14 0.14 0.14 0.14 0.16 0.15 0.11 0.08 0.07 0.09 0.11 0.13 0.14 0.18 0.24 0.28 0.30 0.30 0.28 0.29 0.34 0.38 0.62 0.87 0.84 0.82
0.18 0.14 0.16 0.15 0.13 0.14 0.17 0.15 0.14 0.16 0.18 0.19 0.22 0.20 0.16 0.17 0.17 0.18 0.20 0.21 0.20 0.17 0.13 0.11 0.11 0.09 0.10 0.12 0.16 0.17 0.18 0.20 0.24 0.29 0.32 0.31 0.31 0.31 0.34 0.38 0.48 0.58 0.65 0.77
0.12 0.11 0.12 0.12 0.11 0.11 0.13 0.15 0.17 0.19 0.18 0.15 0.15 0.17 0.22 0.25 0.24 0.23 0.23 0.22 0.19 0.15 0.14 0.13 0.13 0.12 0.13 0.16 0.20 0.21 0.22 0.25 0.30 0.31 0.33 0.34 0.36 0.37 0.37 0.34 0.36 0.41 0.46 0.54
0.08 0.10 0.12 0.11 0.10 0.09 0.11 0.13 0.16 0.18 0.16 0.13 0.13 0.15 0.20 0.24 0.24 0.21 0.20 0.18 0.15 0.14 0.13 0.14 0.14 0.14 0.15 0.18 0.22 0.25 0.27 0.30 0.33 0.35 0.36 0.37 0.39 0.40 0.40 0.41 0.41 0.40 0.41 0.46
0.07 0.09 0.12 0.10 0.09 0.10 0.11 0.12 0.13 0.15 0.14 0.13 0.12 0.13 0.16 0.20 0.23 0.23 0.20 0.15 0.13 0.13 0.13 0.13 0.14 0.14 0.14 0.17 0.21 0.24 0.26 0.29 0.32 0.36 0.38 0.39 0.42 0.43 0.43 0.42 0.43 0.44 0.44 0.48
0.10 0.10 0.10 0.10 0.11 0.13 0.13 0.12 0.14 0.14 0.14 0.14 0.14 0.15 0.15 0.16 0.17 0.17 0.16 0.14 0.13 0.13 0.14 0.14 0.15 0.15 0.16 0.18 0.21 0.23 0.24 0.31 0.37 0.38 0.40 0.41 0.43 0.46 0.47 0.48 0.48 0.48 0.51 0.56
0.13 0.13 0.14 0.15 0.15 0.16 0.17 0.17 0.16 0.15 0.12 0.11 0.12 0.12 0.12 0.11 0.11 0.11 0.13 0.13 0.13 0.14 0.14 0.15 0.16 0.15 0.16 0.19 0.24 0.26 0.28 0.31 0.37 0.38 0.39 0.42 0.46 0.51 0.52 0.55 0.57 0.54 0.52 0.56
0.15 0.17 0.19 0.21 0.21 0.20 0.19 0.16 0.13 0.11 0.11 0.10 0.10 0.10 0.10 0.11 0.12 0.11 0.12 0.12 0.11 0.12 0.13 0.15 0.17 0.16 0.16 0.19 0.29 0.31 0.34 0.38 0.39 0.41 0.42 0.45 0.51 0.53 0.55 0.57 0.57 0.55 0.52 0.52
0.14 0.16 0.17 0.18 0.19 0.19 0.18 0.15 0.12 0.11 0.11 0.11 0.11 0.12 0.12 0.12 0.13 0.13 0.12 0.11 0.12 0.14 0.15 0.15 0.18 0.16 0.17 0.21 0.33 0.37 0.40 0.43 0.43 0.42 0.43 0.49 0.50 0.47 0.51 0.54 0.55 0.54 0.52 0.52
0.16 0.16 0.16 0.17 0.17 0.17 0.16 0.13 0.11 0.10 0.11 0.11 0.12 0.12 0.13 0.13 0.14 0.14 0.13 0.14 0.16 0.19 0.17 0.17 0.18 0.19 0.23 0.29 0.40 0.44 0.46 0.47 0.48 0.46 0.46 0.48 0.49 0.48 0.50 0.51 0.54 0.55 0.53 0.53
0.19 0.17 0.17 0.17 0.16 0.14 0.13 0.11 0.10 0.10 0.10 0.11 0.12 0.13 0.13 0.14 0.14 0.14 0.15 0.16 0.16 0.18 0.18 0.19 0.21 0.31 0.38 0.45 0.49 0.48 0.47 0.48 0.49 0.50 0.51 0.53 0.54 0.51 0.50 0.51 0.54 0.55 0.55 0.54
0.18 0.18 0.18 0.18 0.15 0.14 0.13 0.12 0.12 0.12 0.11 0.12 0.13 0.14 0.15 0.16 0.16 0.17 0.18 0.20 0.22 0.25 0.23 0.22 0.31 0.48 0.52 0.53 0.48 0.47 0.46 0.44 0.46 0.48 0.52 0.56 0.60 0.59 0.56 0.56 0.59 0.57 0.56 0.57
0.19 0.20 0.20 0.19 0.17 0.16 0.15 0.15 0.14 0.14 0.15 0.15 0.16 0.18 0.20 0.21 0.22 0.24 0.28 0.26 0.26 0.29 0.27 0.28 0.39 0.49 0.50 0.46 0.44 0.43 0.44 0.46 0.48 0.50 0.54 0.59 0.62 0.64 0.66 0.64 0.61 0.61 0.62 0.62
0.23 0.23 0.22 0.20 0.17 0.16 0.17 0.18 0.17 0.17 0.18 0.19 0.21 0.22 0.23 0.24 0.26 0.27 0.30 0.30 0.29 0.30 0.28 0.31 0.39 0.41 0.41 0.40 0.40 0.42 0.45 0.50 0.56 0.57 0.58 0.60 0.61 0.64 0.68 0.69 0.68 0.64 0.63 0.63
0.28 0.26 0.23 0.21 0.19 0.20 0.22 0.22 0.21 0.21 0.20 0.21 0.23 0.24 0.24 0.26 0.30 0.31 0.29 0.29 0.31 0.31 0.30 0.32 0.35 0.36 0.35 0.38 0.41 0.45 0.51 0.58 0.66 0.70 0.69 0.67 0.64 0.65 0.67 0.69 0.72 0.72 0.69 0.66
0.33 0.31 0.28 0.26 0.25 0.25 0.25 0.24 0.25 0.26 0.24 0.24 0.24 0.24 0.24 0.25 0.27 0.28 0.30 0.31 0.32 0.32 0.32 0.32 0.33 0.36 0.38 0.41 0.45 0.49 0.55 0.60 0.63 0.63 0.62 0.64 0.64 0.66 0.68 0.70 0.72 0.73 0.72 0.69
0.34 0.30 0.27 0.25 0.24 0.23 0.24 0.24 0.26 0.28 0.27 0.27 0.27 0.25 0.23 0.23 0.24 0.26 0.28 0.30 0.33 0.33 0.34 0.36 0.37 0.40 0.42 0.44 0.47 0.51 0.55 0.58 0.62 0.66 0.66 0.66 0.66 0.68 0.70 0.73 0.75 0.74 0.73 0.71

GEFSNGP_prec_meanprecacc_234.txt.gz
Total_Precipitation_Accumulation
0.34 0.21 0.21 0.26 0.24 0.24 0.34 0.37 0.32 0.15 0.09 0.06 0.05 0.06 0.07 0.07 0.07 0.06 0.06 0.08 0.10 0.11 0.10 0.12 0.13 0.15 0.19 0.24 0.27 0.32 0.38 0.40 0.40 0.40 0.44 0.44 0.47 0.50 0.53 0.56 0.59 0.61 0.61 0.64
0.42 0.24 0.23 0.24 0.18 0.17 0.19 0.18 0.16 0.11 0.10 0.07 0.04 0.04 0.05 0.06 0.08 0.08 0.08 0.09 0.09 0.12 0.12 0.12 0.17 0.23 0.29 0.36 0.39 0.42 0.46 0.49 0.47 0.42 0.41 0.46 0.47 0.48 0.51 0.55 0.56 0.56 0.56 0.57
0.62 0.31 0.44 0.44 0.18 0.14 0.15 0.14 0.14 0.14 0.11 0.07 0.05 0.04 0.04 0.05 0.08 0.09 0.09 0.09 0.09 0.12 0.15 0.17 0.22 0.29 0.37 0.41 0.42 0.44 0.48 0.52 0.54 0.47 0.42 0.44 0.46 0.45 0.45 0.45 0.47 0.48 0.49 0.49
0.88 0.63 0.79 0.34 0.09 0.09 0.11 0.12 0.12 0.12 0.11 0.09 0.07 0.05 0.05 0.05 0.09 0.11 0.13 0.15 0.15 0.16 0.18 0.22 0.26 0.32 0.38 0.42 0.44 0.45 0.45 0.45 0.46 0.41 0.35 0.38 0.42 0.41 0.37 0.37 0.41 0.43 0.43 0.43
1.11 0.85 0.45 0.13 0.07 0.09 0.13 0.17 0.15 0.14 0.12 0.11 0.10 0.09 0.09 0.10 0.10 0.12 0.13 0.14 0.13 0.13 0.15 0.20 0.25 0.28 0.30 0.32 0.34 0.34 0.34 0.33 0.33 0.30 0.30 0.34 0.39 0.36 0.32 0.32 0.34 0.37 0.40 0.43
1.24 0.97 0.45 0.14 0.06 0.07 0.14 0.22 0.15 0.13 0.13 0.13 0.16 0.29 0.19 0.16 0.12 0.09 0.08 0.07 0.08 0.09 0.10 0.12 0.16 0.19 0.20 0.21 0.22 0.24 0.24 0.24 0.29 0.27 0.25 0.30 0.35 0.34 0.32 0.31 0.34 0.36 0.39 0.46
1.04 0.90 0.37 0.11 0.07 0.10 0.27 0.32 0.19 0.16 0.16 0.20 0.29 0.35 0.22 0.15 0.12 0.10 0.08 0.07 0.08 0.09 0.13 0.15 0.17 0.18 0.17 0.15 0.16 0.17 0.18 0.20 0.26 0.28 0.26 0.27 0.29 0.32 0.32 0.33 0.34 0.36 0.38 0.43
0.81 0.99 0.50 0.14 0.13 0.23 0.32 0.23 0.19 0.20 0.22 0.28 0.26 0.17 0.15 0.14 0.14 0.11 0.10 0.09 0.10 0.12 0.17 0.22 0.22 0.18 0.14 0.12 0.11 0.12 0.16 0.18 0.23 0.31 0.29 0.27 0.29 0.29 0.30 0.34 0.37 0.39 0.40 0.42
0.59 0.53 0.27 0.18 0.20 0.22 0.21 0.22 0.24 0.31 0.31 0.30 0.27 0.21 0.19 0.17 0.13 0.11 0.11 0.12 0.14 0.15 0.19 0.22 0.18 0.13 0.12 0.11 0.10 0.11 0.15 0.19 0.24 0.30 0.29 0.28 0.29 0.30 0.31 0.34 0.39 0.44 0.46 0.47
0.39 0.28 0.20 0.17 0.14 0.14 0.15 0.19 0.23 0.26 0.29 0.31 0.33 0.27 0.22 0.19 0.17 0.14 0.13 0.14 0.14 0.14 0.17 0.20 0.15 0.10 0.09 0.09 0.09 0.11 0.14 0.20 0.25 0.29 0.31 0.30 0.28 0.29 0.31 0.37 0.52 0.60 0.59 0.58
0.27 0.21 0.19 0.18 0.17 0.16 0.17 0.16 0.14 0.15 0.19 0.28 0.34 0.28 0.20 0.17 0.16 0.17 0.17 0.16 0.16 0.16 0.17 0.17 0.13 0.10 0.09 0.11 0.13 0.14 0.16 0.20 0.25 0.29 0.31 0.31 0.29 0.30 0.34 0.39 0.63 0.89 0.85 0.84
0.22 0.17 0.19 0.18 0.16 0.17 0.19 0.18 0.17 0.18 0.20 0.21 0.24 0.22 0.18 0.19 0.19 0.19 0.21 0.22 0.21 0.18 0.14 0.12 0.11 0.10 0.11 0.13 0.17 0.19 0.20 0.22 0.26 0.31 0.33 0.32 0.32 0.32 0.34 0.38 0.49 0.59 0.66 0.79
0.16 0.13 0.14 0.14 0.13 0.13 0.16 0.18 0.20 0.21 0.20 0.17 0.16 0.17 0.23 0.27 0.25 0.23 0.24 0.23 0.20 0.16 0.14 0.14 0.13 0.13 0.14 0.17 0.21 0.22 0.24 0.27 0.31 0.33 0.35 0.35 0.37 0.38 0.38 0.35 0.36 0.41 0.47 0.56
0.11 0.12 0.14 0.12 0.12 0.11 0.13 0.15 0.17 0.20 0.18 0.14 0.13 0.15 0.20 0.25 0.25 0.22 0.21 0.18 0.15 0.14 0.14 0.14 0.14 0.14 0.15 0.18 0.23 0.26 0.27 0.31 0.35 0.36 0.37 0.38 0.40 0.41 0.41 0.42 0.41 0.40 0.42 0.47
0.09 0.11 0.13 0.11 0.10 0.11 0.13 0.14 0.15 0.16 0.15 0.14 0.13 0.14 0.17 0.21 0.25 0.25 0.21 0.16 0.14 0.14 0.14 0.14 0.14 0.14 0.15 0.17 0.21 0.24 0.27 0.29 0.33 0.37 0.39 0.40 0.43 0.44 0.43 0.43 0.44 0.45 0.45 0.48
0.11 0.11 0.11 0.11 0.12 0.15 0.14 0.13 0.15 0.16 0.15 0.15 0.15 0.15 0.16 0.17 0.18 0.19 0.18 0.16 0.15 0.15 0.15 0.15 0.15 0.15 0.16 0.18 0.22 0.23 0.25 0.32 0.38 0.39 0.40 0.41 0.44 0.46 0.48 0.49 0.49 0.49 0.52 0.57
0.14 0.14 0.15 0.16 0.16 0.18 0.19 0.18 0.16 0.15 0.13 0.11 0.12 0.13 0.12 0.12 0.12 0.13 0.14 0.15 0.15 0.16 0.16 0.17 0.17 0.16 0.17 0.19 0.25 0.27 0.28 0.32 0.38 0.39 0.40 0.43 0.47 0.52 0.54 0.56 0.58 0.56 0.53 0.57
0.16 0.18 0.20 0.22 0.22 0.21 0.20 0.17 0.14 0.12 0.11 0.11 0.11 0.11 0.11 0.12 0.13 0.13 0.13 0.14 0.13 0.14 0.15 0.17 0.19 0.18 0.17 0.20 0.30 0.32 0.35 0.38 0.40 0.42 0.43 0.46 0.52 0.54 0.56 0.58 0.59 0.57 0.53 0.53
0.16 0.17 0.18 0.20 0.21 0.22 0.20 0.16 0.13 0.12 0.12 0.12 0.12 0.13 0.14 0.14 0.14 0.15 0.14 0.14 0.14 0.16 0.16 0.16 0.19 0.17 0.17 0.22 0.34 0.38 0.41 0.44 0.44 0.43 0.44 0.50 0.51 0.48 0.52 0.55 0.57 0.55 0.53 0.53
0.17 0.17 0.18 0.19 0.19 0.19 0.18 0.15 0.12 0.12 0.12 0.12 0.13 0.14 0.15 0.15 0.15 0.16 0.15 0.15 0.17 0.20 0.18 0.18 0.18 0.20 0.24 0.29 0.41 0.45 0.48 0.49 0.49 0.47 0.47 0.49 0.50 0.49 0.51 0.52 0.55 0.56 0.55 0.55
0.20 0.18 0.18 0.19 0.18 0.16 0.14 0.13 0.12 0.11 0.11 0.12 0.13 0.14 0.15 0.15 0.15 0.15 0.15 0.17 0.17 0.19 0.18 0.19 0.22 0.31 0.39 0.46 0.50 0.49 0.49 0.50 0.51 0.52 0.53 0.54 0.54 0.52 0.51 0.52 0.55 0.56 0.56 0.56
0.20 0.19 0.20 0.19 0.17 0.16 0.14 0.14 0.13 0.13 0.13 0.13 0.14 0.15 0.16 0.17 0.17 0.18 0.19 0.21 0.23 0.25 0.23 0.23 0.31 0.49 0.53 0.54 0.49 0.48 0.47 0.46 0.47 0.50 0.53 0.57 0.60 0.60 0.57 0.57 0.60 0.59 0.57 0.59
0.20 0.21 0.21 0.21 0.18 0.17 0.16 0.16 0.15 0.15 0.16 0.17 0.17 0.19 0.21 0.22 0.23 0.25 0.29 0.27 0.26 0.30 0.28 0.28 0.40 0.50 0.51 0.48 0.45 0.45 0.45 0.47 0.49 0.52 0.55 0.60 0.63 0.65 0.67 0.65 0.63 0.63 0.64 0.64
0.25 0.25 0.24 0.22 0.19 0.18 0.19 0.19 0.18 0.18 0.19 0.20 0.22 0.23 0.24 0.25 0.27 0.27 0.30 0.31 0.30 0.31 0.29 0.32 0.40 0.43 0.43 0.41 0.42 0.44 0.47 0.52 0.57 0.59 0.59 0.62 0.63 0.65 0.69 0.70 0.70 0.66 0.65 0.65
0.30 0.28 0.25 0.23 0.21 0.22 0.23 0.23 0.22 0.22 0.21 0.22 0.24 0.25 0.26 0.27 0.31 0.32 0.30 0.30 0.32 0.32 0.31 0.33 0.36 0.38 0.37 0.39 0.43 0.47 0.52 0.59 0.67 0.71 0.70 0.68 0.65 0.66 0.68 0.70 0.73 0.73 0.70 0.68
0.34 0.32 0.30 0.28 0.26 0.26 0.26 0.25 0.26 0.27 0.25 0.24 0.25 0.25 0.25 0.26 0.27 0.29 0.31 0.32 0.33 0.33 0.33 0.33 0.34 0.37 0.39 0.42 0.46 0.50 0.56 0.61 0.64 0.64 0.63 0.65 0.65 0.67 0.69 0.71 0.73 0.74 0.73 0.70
0.34 0.31 0.28 0.26 0.25 0.24 0.25 0.25 0.27 0.29 0.28 0.28 0.28 0.26 0.24 0.24 0.25 0.27 0.29 0.31 0.34 0.34 0.35 0.36 0.38 0.41 0.43 0.45 0.48 0.52 0.56 0.59 0.63 0.67 0.66 0.67 0.67 0.69 0.71 0.74 0.76 0.75 0.74 0.73

GEFSNGP_prec_meanprecacc_240.txt.gz
Total_Precipitation_Accumulation
0.37 0.23 0.24 0.29 0.26 0.27 0.38 0.40 0.35 0.17 0.10 0.08 0.06 0.07 0.08 0.07 0.07 0.06 0.06 0.08 0.11 0.11 0.10 0.13 0.14 0.15 0.20 0.25 0.28 0.33 0.39 0.41 0.41 0.42 0.46 0.46 0.48 0.51 0.53 0.57 0.60 0.62 0.63 0.66
0.45 0.26 0.25 0.27 0.21 0.20 0.22 0.20 0.18 0.13 0.11 0.08 0.05 0.05 0.05 0.06 0.08 0.08 0.08 0.09 0.09 0.12 0.13 0.13 0.18 0.24 0.30 0.37 0.40 0.43 0.48 0.50 0.48 0.44 0.43 0.47 0.48 0.48 0.52 0.56 0.57 0.57 0.57 0.59
0.65 0.33 0.47 0.47 0.22 0.18 0.19 0.17 0.16 0.16 0.13 0.09 0.06 0.04 0.04 0.05 0.08 0.09 0.09 0.09 0.10 0.13 0.17 0.18 0.24 0.32 0.39 0.43 0.44 0.46 0.49 0.53 0.55 0.48 0.43 0.46 0.47 0.46 0.46 0.46 0.48 0.49 0.50 0.50
0.91 0.66 0.84 0.37 0.12 0.12 0.14 0.15 0.15 0.15 0.13 0.11 0.09 0.06 0.05 0.05 0.09 0.12 0.13 0.15 0.15 0.17 0.20 0.24 0.30 0.35 0.41 0.44 0.46 0.47 0.47 0.47 0.47 0.42 0.37 0.39 0.43 0.42 0.39 0.39 0.43 0.44 0.45 0.44
1.15 0.89 0.49 0.14 0.08 0.12 0.17 0.21 0.19 0.17 0.14 0.13 0.12 0.09 0.10 0.11 0.11 0.12 0.13 0.14 0.14 0.14 0.16 0.22 0.27 0.31 0.33 0.36 0.37 0.37 0.37 0.35 0.35 0.32 0.31 0.35 0.40 0.37 0.34 0.33 0.35 0.38 0.40 0.44
1.28 1.01 0.48 0.16 0.07 0.09 0.17 0.27 0.19 0.16 0.16 0.15 0.18 0.31 0.21 0.17 0.12 0.10 0.09 0.08 0.09 0.10 0.11 0.13 0.18 0.21 0.22 0.23 0.25 0.27 0.27 0.27 0.32 0.29 0.27 0.32 0.37 0.36 0.34 0.32 0.35 0.37 0.40 0.47
1.08 0.94 0.41 0.14 0.08 0.12 0.31 0.37 0.22 0.18 0.19 0.23 0.31 0.37 0.23 0.16 0.14 0.12 0.10 0.09 0.10 0.12 0.14 0.16 0.19 0.20 0.20 0.18 0.19 0.20 0.21 0.23 0.30 0.31 0.29 0.30 0.32 0.34 0.34 0.35 0.36 0.38 0.39 0.44
0.85 1.02 0.53 0.16 0.15 0.28 0.38 0.26 0.22 0.22 0.24 0.31 0.28 0.19 0.16 0.16 0.16 0.13 0.12 0.11 0.12 0.15 0.20 0.25 0.25 0.20 0.17 0.14 0.13 0.14 0.18 0.21 0.26 0.33 0.31 0.30 0.31 0.32 0.32 0.36 0.39 0.40 0.41 0.44
0.62 0.56 0.30 0.21 0.24 0.27 0.26 0.26 0.28 0.35 0.35 0.34 0.31 0.24 0.22 0.19 0.15 0.13 0.13 0.14 0.15 0.17 0.21 0.25 0.21 0.16 0.14 0.13 0.12 0.13 0.16 0.20 0.25 0.31 0.30 0.29 0.31 0.32 0.32 0.35 0.41 0.45 0.47 0.49
0.42 0.31 0.22 0.20 0.17 0.17 0.18 0.23 0.26 0.29 0.33 0.36 0.38 0.31 0.26 0.23 0.20 0.17 0.16 0.16 0.16 0.16 0.19 0.22 0.17 0.12 0.11 0.11 0.11 0.13 0.16 0.21 0.26 0.30 0.32 0.31 0.30 0.31 0.33 0.39 0.54 0.62 0.61 0.59
0.30 0.24 0.21 0.20 0.19 0.19 0.20 0.18 0.17 0.18 0.22 0.32 0.38 0.33 0.25 0.21 0.21 0.22 0.21 0.19 0.19 0.19 0.20 0.19 0.15 0.11 0.11 0.13 0.15 0.17 0.19 0.23 0.28 0.32 0.33 0.34 0.32 0.32 0.36 0.41 0.65 0.91 0.87 0.85
0.25 0.20 0.21 0.21 0.19 0.19 0.22 0.20 0.20 0.21 0.22 0.24 0.26 0.25 0.22 0.22 0.23 0.23 0.24 0.25 0.24 0.21 0.17 0.15 0.13 0.12 0.13 0.15 0.19 0.21 0.22 0.24 0.28 0.33 0.35 0.34 0.34 0.34 0.36 0.40 0.51 0.60 0.67 0.80
0.18 0.16 0.15 0.16 0.15 0.15 0.17 0.20 0.22 0.23 0.22 0.19 0.18 0.19 0.24 0.28 0.27 0.25 0.26 0.25 0.22 0.18 0.17 0.16 0.15 0.15 0.16 0.19 0.22 0.24 0.26 0.29 0.33 0.35 0.37 0.37 0.39 0.40 0.40 0.37 0.38 0.43 0.49 0.57
0.13 0.13 0.16 0.14 0.14 0.13 0.15 0.16 0.19 0.21 0.20 0.16 0.15 0.17 0.22 0.26 0.26 0.23 0.22 0.19 0.17 0.16 0.16 0.16 0.16 0.17 0.18 0.20 0.24 0.28 0.30 0.33 0.37 0.39 0.40 0.41 0.43 0.43 0.43 0.44 0.43 0.42 0.43 0.48
0.11 0.12 0.15 0.13 0.11 0.12 0.14 0.15 0.16 0.18 0.17 0.16 0.14 0.15 0.18 0.22 0.26 0.26 0.22 0.17 0.15 0.15 0.15 0.16 0.16 0.16 0.17 0.19 0.23 0.26 0.28 0.31 0.35 0.38 0.40 0.42 0.45 0.46 0.45 0.44 0.45 0.46 0.46 0.49
0.12 0.12 0.12 0.12 0.14 0.16 0.15 0.14 0.16 0.17 0.16 0.16 0.16 0.16 0.17 0.18 0.20 0.20 0.19 0.17 0.16 0.16 0.17 0.17 0.17 0.17 0.17 0.20 0.23 0.24 0.26 0.33 0.39 0.40 0.42 0.43 0.45 0.48 0.49 0.50 0.50 0.50 0.53 0.58
0.15 0.15 0.16 0.17 0.18 0.19 0.20 0.19 0.18 0.17 0.14 0.12 0.13 0.13 0.13 0.13 0.13 0.13 0.15 0.16 0.16 0.17 0.17 0.18 0.19 0.18 0.18 0.20 0.26 0.28 0.29 0.33 0.39 0.40 0.41 0.44 0.48 0.53 0.55 0.58 0.59 0.57 0.54 0.58
0.17 0.19 0.21 0.23 0.23 0.22 0.21 0.18 0.15 0.13 0.12 0.12 0.12 0.12 0.12 0.12 0.13 0.14 0.14 0.15 0.14 0.15 0.16 0.18 0.21 0.19 0.18 0.21 0.30 0.33 0.36 0.39 0.41 0.43 0.43 0.47 0.53 0.55 0.57 0.59 0.60 0.58 0.54 0.54
0.17 0.18 0.19 0.21 0.22 0.23 0.21 0.18 0.15 0.13 0.13 0.13 0.13 0.14 0.15 0.16 0.16 0.16 0.16 0.15 0.15 0.17 0.17 0.18 0.20 0.18 0.19 0.23 0.35 0.39 0.42 0.45 0.45 0.44 0.45 0.51 0.52 0.49 0.53 0.56 0.58 0.56 0.54 0.54
0.19 0.18 0.19 0.20 0.20 0.20 0.20 0.17 0.13 0.13 0.13 0.14 0.15 0.16 0.16 0.17 0.18 0.18 0.17 0.17 0.19 0.22 0.19 0.19 0.19 0.21 0.25 0.30 0.42 0.47 0.49 0.50 0.50 0.48 0.48 0.50 0.51 0.50 0.51 0.53 0.56 0.57 0.56 0.56
0.22 0.20 0.20 0.20 0.19 0.18 0.16 0.15 0.13 0.13 0.13 0.13 0.14 0.16 0.16 0.17 0.17 0.17 0.17 0.18 0.19 0.20 0.19 0.20 0.22 0.32 0.40 0.47 0.51 0.50 0.50 0.51 0.52 0.53 0.54 0.54 0.55 0.52 0.51 0.53 0.56 0.57 0.58 0.57
0.21 0.21 0.21 0.21 0.19 0.17 0.16 0.15 0.15 0.14 0.14 0.15 0.16 0.17 0.18 0.19 0.19 0.19 0.21 0.23 0.24 0.26 0.25 0.24 0.32 0.50 0.55 0.56 0.50 0.49 0.48 0.47 0.48 0.51 0.54 0.57 0.61 0.60 0.58 0.58 0.61 0.60 0.59 0.60
0.22 0.22 0.23 0.22 0.20 0.19 0.18 0.18 0.17 0.17 0.18 0.19 0.19 0.21 0.23 0.24 0.24 0.26 0.31 0.28 0.27 0.31 0.29 0.29 0.41 0.52 0.53 0.49 0.46 0.45 0.46 0.48 0.50 0.52 0.56 0.60 0.64 0.66 0.68 0.66 0.64 0.65 0.66 0.66
0.26 0.26 0.26 0.24 0.21 0.20 0.21 0.21 0.21 0.21 0.21 0.23 0.24 0.25 0.26 0.27 0.28 0.29 0.32 0.32 0.31 0.32 0.30 0.34 0.41 0.44 0.44 0.42 0.43 0.45 0.48 0.53 0.58 0.60 0.61 0.63 0.64 0.67 0.71 0.72 0.72 0.68 0.67 0.67
0.31 0.30 0.27 0.24 0.23 0.24 0.26 0.25 0.24 0.24 0.23 0.24 0.26 0.27 0.27 0.28 0.32 0.33 0.31 0.32 0.33 0.33 0.32 0.34 0.37 0.39 0.38 0.40 0.43 0.47 0.53 0.60 0.68 0.72 0.72 0.70 0.67 0.68 0.70 0.72 0.75 0.75 0.72 0.71
0.36 0.34 0.32 0.30 0.28 0.28 0.28 0.27 0.28 0.29 0.27 0.26 0.27 0.27 0.26 0.27 0.28 0.30 0.32 0.34 0.34 0.34 0.34 0.34 0.35 0.38 0.40 0.43 0.46 0.50 0.56 0.61 0.65 0.65 0.64 0.66 0.66 0.68 0.70 0.73 0.75 0.76 0.76 0.73
0.36 0.33 0.30 0.27 0.26 0.26 0.26 0.27 0.28 0.31 0.30 0.29 0.30 0.28 0.25 0.24 0.26 0.28 0.30 0.33 0.35 0.36 0.36 0.38 0.39 0.42 0.44 0.45 0.48 0.52 0.56 0.59 0.64 0.67 0.67 0.67 0.68 0.70 0.71 0.75 0.77 0.76 0.76 0.75

GEFSNGP_prec_meanprecacc_246.txt.gz
Total_Precipitation_Accumulation
0.40 0.26 0.26 0.31 0.30 0.32 0.43 0.45 0.40 0.21 0.13 0.10 0.08 0.08 0.08 0.08 0.07 0.06 0.06 0.08 0.11 0.11 0.10 0.13 0.14 0.16 0.20 0.25 0.28 0.33 0.39 0.41 0.42 0.43 0.47 0.47 0.49 0.52 0.55 0.59 0.62 0.64 0.64 0.68
0.47 0.27 0.26 0.28 0.23 0.22 0.26 0.24 0.21 0.16 0.15 0.10 0.07 0.06 0.06 0.06 0.09 0.08 0.08 0.09 0.09 0.12 0.13 0.13 0.18 0.24 0.30 0.37 0.40 0.43 0.48 0.50 0.49 0.44 0.44 0.49 0.50 0.50 0.53 0.57 0.58 0.58 0.58 0.60
0.67 0.35 0.48 0.49 0.25 0.22 0.23 0.22 0.19 0.20 0.16 0.11 0.07 0.06 0.06 0.06 0.09 0.10 0.09 0.09 0.10 0.13 0.17 0.18 0.24 0.32 0.39 0.43 0.45 0.47 0.50 0.54 0.56 0.49 0.45 0.47 0.49 0.48 0.47 0.48 0.50 0.51 0.52 0.52
0.94 0.68 0.87 0.41 0.16 0.17 0.19 0.19 0.20 0.18 0.16 0.12 0.10 0.07 0.06 0.07 0.10 0.12 0.14 0.15 0.15 0.17 0.20 0.24 0.30 0.36 0.42 0.46 0.49 0.50 0.50 0.49 0.50 0.44 0.38 0.41 0.46 0.45 0.41 0.41 0.45 0.47 0.47 0.46
1.19 0.92 0.51 0.16 0.10 0.15 0.21 0.26 0.23 0.21 0.19 0.16 0.13 0.10 0.11 0.12 0.12 0.13 0.14 0.14 0.14 0.14 0.16 0.22 0.27 0.32 0.34 0.38 0.40 0.40 0.40 0.38 0.38 0.36 0.35 0.39 0.44 0.41 0.37 0.36 0.38 0.41 0.43 0.46
1.32 1.04 0.51 0.18 0.08 0.11 0.20 0.30 0.22 0.19 0.20 0.19 0.21 0.34 0.23 0.18 0.13 0.11 0.09 0.09 0.10 0.11 0.11 0.14 0.18 0.21 0.23 0.25 0.27 0.30 0.30 0.31 0.35 0.32 0.30 0.35 0.41 0.39 0.37 0.36 0.37 0.40 0.42 0.49
1.12 0.96 0.43 0.15 0.09 0.13 0.34 0.41 0.24 0.21 0.21 0.25 0.34 0.40 0.26 0.18 0.15 0.12 0.10 0.09 0.10 0.12 0.15 0.17 0.20 0.21 0.21 0.19 0.20 0.21 0.23 0.26 0.33 0.35 0.32 0.33 0.35 0.37 0.37 0.37 0.38 0.40 0.41 0.46
0.87 1.05 0.55 0.17 0.16 0.30 0.42 0.28 0.23 0.24 0.26 0.32 0.30 0.21 0.18 0.18 0.17 0.14 0.13 0.13 0.13 0.16 0.22 0.26 0.26 0.21 0.18 0.16 0.14 0.15 0.19 0.22 0.27 0.35 0.33 0.32 0.33 0.34 0.34 0.38 0.41 0.42 0.44 0.46
0.65 0.59 0.33 0.23 0.27 0.29 0.28 0.27 0.29 0.37 0.37 0.35 0.32 0.26 0.24 0.21 0.17 0.15 0.14 0.15 0.16 0.18 0.23 0.27 0.24 0.18 0.16 0.15 0.13 0.14 0.17 0.21 0.26 0.32 0.31 0.31 0.32 0.34 0.34 0.36 0.42 0.47 0.49 0.51
0.44 0.33 0.24 0.21 0.19 0.18 0.20 0.25 0.28 0.31 0.34 0.37 0.40 0.33 0.28 0.25 0.22 0.19 0.18 0.18 0.17 0.17 0.20 0.24 0.20 0.16 0.15 0.14 0.12 0.13 0.16 0.22 0.27 0.31 0.33 0.33 0.32 0.32 0.35 0.41 0.55 0.64 0.63 0.61
0.31 0.26 0.22 0.22 0.21 0.21 0.22 0.20 0.18 0.19 0.24 0.34 0.40 0.36 0.28 0.25 0.25 0.25 0.24 0.22 0.21 0.21 0.23 0.22 0.17 0.13 0.14 0.17 0.18 0.19 0.20 0.24 0.29 0.33 0.35 0.35 0.34 0.34 0.39 0.43 0.67 0.93 0.90 0.88
0.28 0.22 0.23 0.24 0.21 0.21 0.23 0.22 0.22 0.23 0.24 0.25 0.28 0.28 0.24 0.25 0.26 0.26 0.27 0.28 0.26 0.23 0.19 0.17 0.16 0.14 0.15 0.17 0.21 0.23 0.24 0.26 0.30 0.36 0.38 0.37 0.36 0.37 0.39 0.42 0.53 0.62 0.70 0.83
0.22 0.18 0.17 0.18 0.17 0.16 0.19 0.21 0.23 0.25 0.24 0.20 0.19 0.21 0.26 0.30 0.29 0.27 0.28 0.27 0.24 0.21 0.19 0.19 0.18 0.17 0.18 0.22 0.25 0.27 0.28 0.31 0.35 0.37 0.39 0.40 0.41 0.43 0.43 0.40 0.41 0.46 0.51 0.60
0.15 0.15 0.17 0.16 0.15 0.14 0.16 0.17 0.19 0.22 0.21 0.17 0.16 0.18 0.23 0.28 0.27 0.24 0.24 0.22 0.19 0.18 0.18 0.19 0.19 0.19 0.20 0.22 0.26 0.30 0.31 0.35 0.38 0.40 0.42 0.43 0.45 0.46 0.46 0.46 0.46 0.45 0.45 0.50
0.13 0.14 0.17 0.14 0.12 0.13 0.15 0.15 0.16 0.18 0.18 0.16 0.15 0.16 0.19 0.23 0.27 0.27 0.23 0.19 0.17 0.17 0.18 0.18 0.18 0.19 0.19 0.21 0.24 0.27 0.30 0.32 0.36 0.40 0.42 0.44 0.47 0.48 0.47 0.47 0.48 0.48 0.48 0.51
0.14 0.14 0.13 0.13 0.15 0.18 0.17 0.15 0.17 0.18 0.17 0.17 0.17 0.17 0.17 0.19 0.20 0.20 0.20 0.18 0.16 0.18 0.19 0.19 0.19 0.19 0.20 0.22 0.25 0.27 0.28 0.35 0.41 0.42 0.43 0.45 0.47 0.50 0.51 0.52 0.52 0.51 0.54 0.59
0.18 0.17 0.17 0.19 0.19 0.21 0.23 0.21 0.19 0.18 0.14 0.13 0.14 0.14 0.13 0.13 0.14 0.14 0.16 0.17 0.17 0.18 0.19 0.20 0.21 0.20 0.20 0.22 0.28 0.30 0.32 0.36 0.41 0.42 0.43 0.45 0.50 0.55 0.56 0.59 0.61 0.58 0.55 0.59
0.21 0.22 0.24 0.26 0.25 0.24 0.24 0.21 0.18 0.15 0.14 0.13 0.12 0.12 0.12 0.13 0.14 0.15 0.15 0.16 0.15 0.16 0.17 0.20 0.22 0.20 0.19 0.23 0.32 0.34 0.37 0.41 0.43 0.44 0.45 0.48 0.54 0.56 0.58 0.60 0.61 0.59 0.55 0.55
0.20 0.20 0.21 0.23 0.24 0.25 0.24 0.21 0.18 0.17 0.16 0.15 0.14 0.15 0.16 0.16 0.17 0.18 0.16 0.15 0.15 0.17 0.18 0.18 0.21 0.19 0.19 0.24 0.36 0.40 0.43 0.46 0.46 0.45 0.46 0.52 0.53 0.50 0.53 0.57 0.59 0.57 0.55 0.55
0.21 0.20 0.20 0.21 0.22 0.22 0.22 0.19 0.16 0.15 0.15 0.15 0.16 0.17 0.18 0.19 0.19 0.18 0.18 0.18 0.20 0.23 0.21 0.20 0.20 0.21 0.25 0.31 0.43 0.47 0.50 0.51 0.51 0.49 0.49 0.51 0.52 0.51 0.52 0.54 0.57 0.58 0.57 0.57
0.24 0.22 0.22 0.22 0.21 0.20 0.19 0.17 0.15 0.14 0.14 0.15 0.15 0.17 0.18 0.19 0.19 0.18 0.18 0.20 0.21 0.22 0.21 0.22 0.24 0.33 0.41 0.48 0.52 0.51 0.51 0.52 0.53 0.54 0.55 0.55 0.56 0.53 0.52 0.54 0.56 0.58 0.58 0.58
0.23 0.23 0.24 0.23 0.21 0.20 0.19 0.18 0.17 0.16 0.16 0.16 0.17 0.18 0.19 0.20 0.20 0.21 0.22 0.24 0.27 0.29 0.26 0.25 0.33 0.51 0.56 0.57 0.51 0.50 0.49 0.48 0.49 0.52 0.55 0.58 0.62 0.61 0.58 0.58 0.62 0.61 0.60 0.62
0.24 0.24 0.25 0.24 0.22 0.22 0.21 0.21 0.20 0.19 0.20 0.20 0.20 0.22 0.24 0.25 0.25 0.27 0.32 0.30 0.29 0.32 0.30 0.30 0.42 0.53 0.54 0.50 0.47 0.46 0.47 0.49 0.50 0.53 0.57 0.61 0.65 0.67 0.69 0.67 0.66 0.66 0.67 0.68
0.28 0.28 0.28 0.26 0.23 0.22 0.23 0.24 0.23 0.23 0.23 0.24 0.26 0.27 0.27 0.28 0.30 0.30 0.33 0.33 0.33 0.33 0.31 0.34 0.42 0.45 0.45 0.43 0.44 0.45 0.48 0.53 0.59 0.60 0.61 0.64 0.65 0.68 0.72 0.73 0.73 0.69 0.69 0.70
0.33 0.32 0.29 0.26 0.25 0.26 0.28 0.27 0.25 0.25 0.24 0.26 0.28 0.28 0.28 0.30 0.34 0.35 0.33 0.33 0.34 0.34 0.33 0.35 0.38 0.40 0.39 0.41 0.44 0.48 0.54 0.61 0.69 0.73 0.72 0.71 0.68 0.70 0.71 0.74 0.77 0.77 0.75 0.73
0.38 0.36 0.34 0.32 0.30 0.30 0.30 0.28 0.30 0.30 0.28 0.28 0.29 0.28 0.28 0.28 0.30 0.31 0.33 0.34 0.35 0.35 0.35 0.35 0.36 0.39 0.41 0.44 0.47 0.51 0.57 0.62 0.65 0.65 0.64 0.67 0.67 0.69 0.72 0.74 0.77 0.79 0.78 0.76
0.38 0.35 0.31 0.29 0.28 0.28 0.28 0.28 0.30 0.32 0.31 0.30 0.31 0.29 0.26 0.25 0.27 0.29 0.31 0.33 0.36 0.37 0.37 0.39 0.40 0.43 0.45 0.46 0.49 0.53 0.57 0.60 0.64 0.67 0.67 0.68 0.68 0.71 0.72 0.76 0.79 0.78 0.78 0.77

GEFSNGP_prec_meanprecacc_252.txt.gz
Total_Precipitation_Accumulation
0.42 0.28 0.29 0.35 0.34 0.37 0.48 0.51 0.45 0.26 0.17 0.14 0.12 0.11 0.11 0.10 0.09 0.08 0.07 0.08 0.11 0.12 0.11 0.13 0.15 0.16 0.21 0.26 0.29 0.34 0.40 0.42 0.42 0.43 0.47 0.47 0.49 0.52 0.55 0.59 0.62 0.64 0.65 0.69
0.49 0.29 0.27 0.29 0.25 0.26 0.31 0.29 0.26 0.20 0.20 0.16 0.12 0.09 0.08 0.08 0.10 0.10 0.09 0.10 0.11 0.14 0.14 0.14 0.18 0.25 0.31 0.38 0.41 0.44 0.48 0.51 0.49 0.45 0.45 0.49 0.50 0.50 0.53 0.58 0.58 0.58 0.59 0.61
0.70 0.37 0.50 0.51 0.28 0.25 0.27 0.28 0.25 0.25 0.22 0.16 0.12 0.10 0.09 0.09 0.11 0.11 0.11 0.10 0.11 0.13 0.18 0.19 0.24 0.33 0.40 0.43 0.45 0.48 0.50 0.54 0.56 0.49 0.45 0.48 0.50 0.49 0.48 0.49 0.51 0.52 0.53 0.53
0.97 0.71 0.91 0.44 0.18 0.20 0.22 0.24 0.25 0.24 0.21 0.17 0.15 0.12 0.09 0.09 0.11 0.14 0.15 0.16 0.16 0.17 0.20 0.24 0.30 0.36 0.42 0.46 0.49 0.50 0.50 0.49 0.50 0.44 0.39 0.41 0.46 0.45 0.42 0.42 0.46 0.47 0.48 0.47
1.22 0.94 0.54 0.18 0.12 0.18 0.24 0.29 0.27 0.25 0.22 0.19 0.16 0.13 0.13 0.13 0.13 0.14 0.15 0.15 0.15 0.15 0.17 0.22 0.28 0.32 0.34 0.38 0.40 0.41 0.40 0.38 0.39 0.36 0.35 0.40 0.45 0.42 0.38 0.37 0.39 0.41 0.43 0.46
1.34 1.06 0.52 0.19 0.10 0.13 0.23 0.33 0.25 0.22 0.23 0.22 0.23 0.36 0.25 0.19 0.14 0.11 0.10 0.10 0.10 0.11 0.12 0.14 0.19 0.22 0.23 0.25 0.27 0.30 0.31 0.31 0.36 0.33 0.31 0.36 0.42 0.40 0.38 0.37 0.39 0.41 0.43 0.51
1.14 0.98 0.44 0.17 0.10 0.14 0.37 0.45 0.27 0.24 0.24 0.28 0.37 0.43 0.28 0.19 0.16 0.14 0.11 0.10 0.11 0.13 0.16 0.18 0.21 0.22 0.21 0.20 0.21 0.22 0.24 0.26 0.33 0.35 0.33 0.33 0.36 0.38 0.38 0.38 0.40 0.42 0.44 0.48
0.89 1.07 0.57 0.18 0.17 0.33 0.46 0.31 0.26 0.26 0.28 0.35 0.32 0.23 0.19 0.19 0.19 0.16 0.14 0.14 0.14 0.17 0.23 0.27 0.27 0.22 0.19 0.16 0.15 0.16 0.19 0.22 0.28 0.35 0.33 0.32 0.34 0.35 0.35 0.39 0.43 0.44 0.46 0.48
0.66 0.61 0.35 0.25 0.29 0.32 0.30 0.30 0.31 0.39 0.39 0.38 0.35 0.28 0.26 0.23 0.19 0.16 0.15 0.16 0.18 0.19 0.24 0.28 0.25 0.19 0.17 0.16 0.14 0.14 0.17 0.21 0.26 0.32 0.32 0.32 0.33 0.35 0.35 0.38 0.44 0.49 0.51 0.53
0.45 0.34 0.26 0.23 0.20 0.20 0.22 0.27 0.31 0.33 0.36 0.39 0.42 0.36 0.31 0.28 0.26 0.22 0.20 0.20 0.20 0.19 0.22 0.25 0.21 0.16 0.16 0.15 0.13 0.14 0.17 0.22 0.27 0.32 0.34 0.34 0.33 0.33 0.36 0.42 0.57 0.65 0.65 0.63
0.33 0.26 0.23 0.23 0.22 0.22 0.23 0.22 0.20 0.21 0.26 0.36 0.42 0.38 0.30 0.29 0.29 0.30 0.28 0.25 0.24 0.23 0.24 0.23 0.18 0.14 0.15 0.18 0.20 0.21 0.22 0.26 0.31 0.34 0.35 0.36 0.35 0.35 0.40 0.45 0.68 0.95 0.91 0.90
0.31 0.24 0.24 0.25 0.22 0.22 0.25 0.23 0.23 0.24 0.26 0.27 0.31 0.31 0.27 0.28 0.29 0.29 0.30 0.31 0.28 0.25 0.21 0.19 0.17 0.15 0.16 0.18 0.23 0.25 0.26 0.29 0.33 0.39 0.40 0.40 0.39 0.39 0.42 0.46 0.56 0.64 0.71 0.84
0.24 0.20 0.19 0.19 0.18 0.18 0.21 0.23 0.25 0.26 0.26 0.23 0.22 0.24 0.28 0.33 0.32 0.30 0.30 0.30 0.26 0.22 0.21 0.21 0.19 0.19 0.20 0.23 0.26 0.29 0.31 0.33 0.37 0.39 0.42 0.43 0.44 0.45 0.45 0.43 0.44 0.49 0.54 0.62
0.18 0.17 0.19 0.17 0.17 0.16 0.18 0.19 0.21 0.23 0.22 0.19 0.19 0.20 0.25 0.30 0.29 0.26 0.25 0.24 0.21 0.20 0.20 0.20 0.20 0.21 0.22 0.24 0.28 0.31 0.33 0.37 0.41 0.43 0.45 0.45 0.47 0.48 0.48 0.48 0.48 0.48 0.49 0.53
0.14 0.16 0.19 0.17 0.15 0.15 0.16 0.16 0.17 0.19 0.18 0.18 0.16 0.18 0.21 0.25 0.28 0.28 0.24 0.20 0.18 0.18 0.19 0.19 0.20 0.21 0.21 0.23 0.26 0.28 0.31 0.34 0.38 0.42 0.45 0.46 0.49 0.50 0.49 0.49 0.50 0.50 0.51 0.54
0.15 0.16 0.15 0.15 0.17 0.19 0.19 0.17 0.18 0.19 0.17 0.18 0.18 0.18 0.19 0.20 0.21 0.21 0.20 0.18 0.17 0.18 0.20 0.20 0.20 0.21 0.22 0.24 0.27 0.28 0.30 0.37 0.42 0.44 0.45 0.47 0.50 0.52 0.53 0.54 0.54 0.54 0.56 0.62
0.19 0.19 0.19 0.21 0.21 0.23 0.24 0.24 0.21 0.19 0.15 0.14 0.15 0.15 0.14 0.14 0.15 0.15 0.17 0.18 0.18 0.19 0.19 0.21 0.22 0.21 0.22 0.24 0.30 0.32 0.33 0.37 0.43 0.44 0.45 0.47 0.52 0.57 0.59 0.62 0.63 0.60 0.57 0.62
0.24 0.25 0.27 0.29 0.28 0.27 0.26 0.23 0.20 0.17 0.15 0.14 0.14 0.14 0.13 0.14 0.15 0.16 0.16 0.17 0.16 0.16 0.18 0.20 0.23 0.21 0.20 0.25 0.34 0.36 0.39 0.43 0.45 0.46 0.47 0.50 0.56 0.58 0.60 0.62 0.63 0.61 0.57 0.57
0.23 0.25 0.26 0.27 0.27 0.28 0.26 0.23 0.20 0.19 0.19 0.17 0.17 0.18 0.18 0.19 0.19 0.19 0.18 0.16 0.16 0.18 0.19 0.20 0.22 0.19 0.20 0.25 0.38 0.41 0.45 0.48 0.48 0.47 0.48 0.54 0.55 0.51 0.55 0.59 0.60 0.58 0.56 0.57
0.24 0.23 0.24 0.25 0.25 0.25 0.25 0.22 0.19 0.19 0.20 0.20 0.19 0.20 0.21 0.22 0.21 0.20 0.19 0.19 0.21 0.25 0.22 0.21 0.21 0.22 0.26 0.32 0.44 0.49 0.51 0.52 0.53 0.51 0.51 0.52 0.53 0.52 0.53 0.55 0.58 0.59 0.58 0.59
0.27 0.25 0.25 0.25 0.24 0.22 0.21 0.19 0.17 0.18 0.19 0.19 0.19 0.20 0.21 0.22 0.22 0.21 0.20 0.21 0.23 0.24 0.22 0.23 0.25 0.34 0.42 0.50 0.54 0.52 0.52 0.53 0.55 0.56 0.56 0.57 0.57 0.55 0.54 0.56 0.58 0.60 0.60 0.60
0.26 0.26 0.26 0.25 0.23 0.22 0.22 0.20 0.19 0.19 0.19 0.20 0.20 0.20 0.21 0.22 0.22 0.23 0.24 0.27 0.29 0.31 0.28 0.27 0.35 0.53 0.58 0.59 0.53 0.51 0.50 0.49 0.51 0.53 0.57 0.60 0.64 0.63 0.60 0.61 0.64 0.63 0.61 0.63
0.26 0.27 0.28 0.27 0.25 0.24 0.24 0.23 0.22 0.22 0.22 0.23 0.23 0.24 0.25 0.27 0.26 0.29 0.34 0.32 0.31 0.34 0.32 0.32 0.45 0.55 0.56 0.52 0.48 0.48 0.48 0.50 0.52 0.55 0.59 0.63 0.67 0.69 0.71 0.69 0.68 0.68 0.69 0.69
0.30 0.30 0.31 0.29 0.25 0.24 0.26 0.26 0.25 0.25 0.26 0.26 0.28 0.28 0.28 0.29 0.31 0.32 0.35 0.35 0.34 0.35 0.33 0.37 0.44 0.47 0.46 0.45 0.45 0.47 0.50 0.55 0.60 0.62 0.63 0.66 0.67 0.69 0.73 0.75 0.75 0.71 0.70 0.71
0.35 0.34 0.32 0.29 0.27 0.28 0.30 0.29 0.28 0.27 0.26 0.28 0.29 0.30 0.30 0.31 0.35 0.36 0.34 0.34 0.35 0.35 0.35 0.36 0.39 0.41 0.40 0.42 0.45 0.49 0.55 0.62 0.70 0.74 0.73 0.72 0.69 0.71 0.72 0.75 0.79 0.79 0.77 0.75
0.40 0.39 0.36 0.34 0.32 0.32 0.32 0.31 0.32 0.32 0.29 0.29 0.30 0.30 0.29 0.30 0.31 0.33 0.34 0.36 0.36 0.36 0.36 0.36 0.37 0.40 0.42 0.45 0.48 0.52 0.58 0.63 0.66 0.66 0.65 0.67 0.68 0.70 0.72 0.75 0.78 0.80 0.80 0.77
0.39 0.36 0.33 0.30 0.30 0.30 0.30 0.30 0.31 0.34 0.33 0.31 0.32 0.30 0.27 0.26 0.28 0.29 0.32 0.34 0.36 0.37 0.38 0.39 0.41 0.43 0.45 0.47 0.50 0.54 0.57 0.60 0.64 0.68 0.68 0.68 0.69 0.71 0.73 0.77 0.80 0.79 0.79 0.78

GEFSNGP_prec_meanprecacc_258.txt.gz
Total_Precipitation_Accumulation
0.44 0.30 0.31 0.38 0.38 0.40 0.51 0.55 0.49 0.29 0.20 0.18 0.16 0.14 0.13 0.12 0.10 0.08 0.07 0.09 0.12 0.12 0.11 0.13 0.15 0.16 0.21 0.27 0.29 0.34 0.40 0.42 0.42 0.43 0.47 0.47 0.49 0.52 0.55 0.59 0.62 0.65 0.65 0.69
0.51 0.31 0.29 0.31 0.27 0.28 0.34 0.33 0.30 0.23 0.23 0.20 0.17 0.14 0.10 0.10 0.12 0.11 0.10 0.11 0.11 0.14 0.14 0.14 0.19 0.26 0.31 0.38 0.41 0.44 0.49 0.51 0.50 0.45 0.45 0.49 0.50 0.50 0.53 0.58 0.59 0.59 0.59 0.61
0.72 0.38 0.52 0.54 0.32 0.29 0.31 0.32 0.29 0.29 0.26 0.20 0.17 0.15 0.13 0.12 0.13 0.14 0.13 0.12 0.12 0.15 0.19 0.20 0.26 0.34 0.41 0.45 0.46 0.48 0.51 0.55 0.56 0.49 0.45 0.48 0.50 0.49 0.48 0.49 0.51 0.52 0.53 0.54
1.00 0.73 0.95 0.48 0.20 0.23 0.25 0.28 0.29 0.28 0.25 0.22 0.21 0.17 0.14 0.13 0.14 0.16 0.17 0.18 0.17 0.18 0.21 0.26 0.32 0.38 0.44 0.48 0.50 0.51 0.51 0.50 0.50 0.45 0.39 0.41 0.47 0.46 0.42 0.42 0.46 0.47 0.48 0.47
1.25 0.97 0.56 0.19 0.13 0.20 0.27 0.33 0.31 0.28 0.25 0.22 0.20 0.16 0.16 0.18 0.17 0.17 0.17 0.17 0.16 0.16 0.17 0.23 0.28 0.32 0.35 0.39 0.41 0.42 0.41 0.39 0.39 0.37 0.36 0.40 0.45 0.42 0.38 0.37 0.39 0.41 0.43 0.46
1.37 1.08 0.54 0.21 0.10 0.14 0.26 0.37 0.28 0.25 0.25 0.25 0.25 0.39 0.29 0.23 0.18 0.15 0.13 0.11 0.12 0.13 0.13 0.16 0.20 0.22 0.23 0.26 0.28 0.31 0.32 0.32 0.37 0.34 0.32 0.36 0.43 0.41 0.39 0.37 0.39 0.41 0.44 0.51
1.16 1.01 0.46 0.18 0.11 0.14 0.39 0.49 0.30 0.27 0.27 0.30 0.40 0.46 0.31 0.23 0.20 0.17 0.14 0.13 0.13 0.14 0.17 0.19 0.22 0.24 0.23 0.21 0.22 0.23 0.25 0.28 0.35 0.37 0.34 0.34 0.37 0.39 0.39 0.39 0.40 0.42 0.44 0.49
0.91 1.10 0.59 0.19 0.18 0.34 0.49 0.33 0.27 0.28 0.30 0.37 0.34 0.25 0.21 0.22 0.22 0.19 0.17 0.16 0.16 0.19 0.24 0.28 0.27 0.23 0.20 0.18 0.17 0.17 0.21 0.23 0.29 0.37 0.35 0.34 0.36 0.36 0.36 0.40 0.43 0.45 0.46 0.49
0.68 0.63 0.37 0.26 0.31 0.33 0.31 0.31 0.33 0.40 0.41 0.40 0.37 0.30 0.28 0.25 0.21 0.19 0.18 0.19 0.20 0.20 0.25 0.29 0.26 0.20 0.18 0.17 0.15 0.16 0.18 0.22 0.27 0.33 0.33 0.32 0.34 0.35 0.36 0.38 0.45 0.50 0.52 0.54
0.47 0.36 0.27 0.24 0.21 0.21 0.23 0.28 0.32 0.35 0.38 0.41 0.44 0.38 0.33 0.31 0.28 0.25 0.23 0.23 0.22 0.20 0.23 0.27 0.22 0.18 0.17 0.16 0.15 0.15 0.19 0.24 0.29 0.33 0.35 0.34 0.33 0.34 0.36 0.42 0.57 0.67 0.66 0.65
0.34 0.28 0.24 0.23 0.23 0.23 0.24 0.22 0.21 0.22 0.27 0.38 0.44 0.40 0.33 0.31 0.32 0.33 0.32 0.29 0.27 0.26 0.26 0.25 0.19 0.15 0.16 0.19 0.21 0.22 0.23 0.27 0.32 0.36 0.37 0.37 0.35 0.36 0.41 0.45 0.69 0.96 0.93 0.91
0.32 0.25 0.25 0.26 0.23 0.23 0.25 0.25 0.24 0.25 0.27 0.29 0.32 0.33 0.30 0.31 0.32 0.33 0.34 0.34 0.32 0.28 0.24 0.21 0.18 0.16 0.16 0.19 0.24 0.26 0.27 0.30 0.34 0.40 0.42 0.42 0.41 0.41 0.43 0.47 0.57 0.65 0.72 0.85
0.25 0.21 0.20 0.20 0.19 0.19 0.22 0.25 0.27 0.28 0.28 0.24 0.24 0.25 0.30 0.35 0.34 0.33 0.33 0.32 0.29 0.25 0.23 0.23 0.21 0.20 0.20 0.23 0.27 0.30 0.32 0.34 0.38 0.41 0.43 0.45 0.47 0.48 0.48 0.45 0.46 0.51 0.56 0.64
0.19 0.18 0.20 0.18 0.18 0.17 0.18 0.20 0.22 0.25 0.24 0.20 0.20 0.22 0.26 0.31 0.31 0.27 0.27 0.26 0.24 0.22 0.21 0.22 0.21 0.22 0.23 0.24 0.28 0.32 0.35 0.38 0.42 0.44 0.46 0.47 0.49 0.50 0.50 0.50 0.50 0.50 0.50 0.55
0.16 0.18 0.21 0.18 0.16 0.16 0.17 0.17 0.18 0.20 0.19 0.19 0.18 0.19 0.22 0.26 0.29 0.30 0.26 0.22 0.19 0.20 0.20 0.20 0.21 0.21 0.22 0.23 0.26 0.29 0.32 0.35 0.39 0.43 0.46 0.47 0.50 0.52 0.52 0.51 0.52 0.52 0.53 0.56
0.17 0.18 0.18 0.18 0.20 0.21 0.20 0.18 0.19 0.20 0.18 0.19 0.19 0.19 0.20 0.21 0.22 0.23 0.22 0.20 0.18 0.20 0.21 0.21 0.21 0.22 0.22 0.25 0.27 0.29 0.31 0.38 0.43 0.45 0.47 0.48 0.51 0.53 0.55 0.56 0.56 0.55 0.58 0.63
0.21 0.21 0.22 0.24 0.24 0.26 0.27 0.25 0.22 0.20 0.16 0.14 0.15 0.16 0.15 0.16 0.16 0.17 0.18 0.19 0.19 0.20 0.20 0.21 0.23 0.22 0.22 0.25 0.31 0.33 0.34 0.38 0.44 0.45 0.46 0.49 0.53 0.58 0.60 0.63 0.65 0.62 0.59 0.63
0.26 0.27 0.29 0.32 0.32 0.30 0.29 0.26 0.22 0.19 0.16 0.15 0.14 0.14 0.15 0.15 0.17 0.17 0.18 0.18 0.18 0.18 0.19 0.21 0.23 0.21 0.21 0.25 0.34 0.37 0.40 0.44 0.46 0.48 0.48 0.51 0.57 0.60 0.61 0.64 0.64 0.62 0.58 0.58
0.24 0.26 0.28 0.30 0.31 0.31 0.30 0.26 0.23 0.22 0.21 0.19 0.18 0.19 0.20 0.20 0.21 0.21 0.20 0.19 0.18 0.20 0.20 0.20 0.22 0.20 0.21 0.26 0.39 0.42 0.46 0.49 0.49 0.48 0.49 0.56 0.56 0.53 0.57 0.61 0.62 0.60 0.58 0.58
0.25 0.25 0.27 0.28 0.28 0.28 0.28 0.25 0.22 0.22 0.23 0.23 0.22 0.22 0.23 0.24 0.24 0.23 0.22 0.22 0.24 0.26 0.23 0.22 0.22 0.23 0.27 0.33 0.45 0.49 0.52 0.54 0.54 0.52 0.52 0.54 0.54 0.54 0.55 0.57 0.60 0.61 0.59 0.60
0.29 0.27 0.27 0.27 0.26 0.24 0.24 0.22 0.20 0.20 0.22 0.22 0.22 0.23 0.24 0.25 0.25 0.24 0.23 0.24 0.25 0.25 0.24 0.25 0.26 0.36 0.43 0.51 0.55 0.53 0.53 0.54 0.56 0.57 0.58 0.59 0.59 0.56 0.55 0.57 0.60 0.61 0.61 0.61
0.28 0.29 0.29 0.27 0.25 0.24 0.24 0.22 0.21 0.21 0.21 0.22 0.23 0.24 0.24 0.25 0.25 0.25 0.26 0.29 0.31 0.33 0.30 0.29 0.37 0.55 0.60 0.61 0.55 0.53 0.52 0.50 0.52 0.55 0.58 0.62 0.65 0.65 0.62 0.62 0.66 0.64 0.63 0.65
0.28 0.29 0.30 0.29 0.27 0.26 0.25 0.25 0.24 0.24 0.24 0.25 0.25 0.26 0.28 0.30 0.29 0.31 0.37 0.35 0.34 0.37 0.34 0.34 0.47 0.57 0.59 0.54 0.50 0.50 0.50 0.52 0.53 0.56 0.60 0.65 0.68 0.71 0.73 0.71 0.70 0.70 0.72 0.72
0.32 0.33 0.33 0.31 0.28 0.25 0.27 0.28 0.27 0.27 0.28 0.29 0.30 0.30 0.30 0.31 0.33 0.33 0.37 0.37 0.36 0.37 0.35 0.39 0.46 0.49 0.49 0.47 0.47 0.49 0.52 0.57 0.62 0.64 0.65 0.67 0.69 0.71 0.75 0.77 0.77 0.73 0.73 0.74
0.37 0.36 0.34 0.31 0.29 0.29 0.32 0.31 0.30 0.29 0.28 0.30 0.32 0.32 0.32 0.32 0.37 0.38 0.36 0.36 0.36 0.37 0.37 0.39 0.42 0.43 0.42 0.44 0.47 0.51 0.57 0.64 0.72 0.76 0.75 0.74 0.71 0.73 0.75 0.77 0.81 0.82 0.79 0.77
0.41 0.40 0.38 0.36 0.34 0.33 0.33 0.32 0.33 0.34 0.31 0.31 0.33 0.32 0.31 0.32 0.33 0.34 0.36 0.37 0.37 0.37 0.37 0.37 0.38 0.41 0.44 0.46 0.49 0.54 0.59 0.64 0.67 0.67 0.66 0.69 0.69 0.71 0.74 0.77 0.80 0.82 0.82 0.79
0.40 0.37 0.34 0.32 0.31 0.31 0.31 0.31 0.33 0.35 0.34 0.33 0.34 0.32 0.29 0.28 0.29 0.31 0.33 0.35 0.37 0.38 0.39 0.40 0.42 0.44 0.46 0.48 0.51 0.55 0.58 0.61 0.65 0.69 0.69 0.69 0.70 0.72 0.74 0.78 0.81 0.81 0.81 0.80